Time,TemperatureF,DewpointF,PressureIn,WindDirection,WindDirectionDegrees,WindSpeedMPH,WindSpeedGustMPH,Humidity,HourlyPrecipIn,Conditions,Clouds,dailyrainin,SolarRadiationWatts/m^2,SoftwareType,DateUTC
2013-05-28 00:02:00,67.3,64.3,29.65,ESE,117,4.0,4.0,90,0.00,,,0.00,0,Wunderground v.1.15,2013-05-28 05:02:00,
2013-05-28 00:04:00,67.3,64.3,29.64,ESE,109,7.0,7.0,90,0.00,,,0.00,0,Wunderground v.1.15,2013-05-28 05:04:00,
2013-05-28 00:05:00,67.3,64.3,29.64,SE,127,5.0,7.0,90,0.00,,,0.00,0,Wunderground v.1.15,2013-05-28 05:05:00,
2013-05-28 00:07:00,67.3,64.3,29.64,ESE,113,4.0,7.0,90,0.00,,,0.00,0,Wunderground v.1.15,2013-05-28 05:07:00,
2013-05-28 00:10:00,67.3,64.3,29.64,SE,127,1.0,4.0,90,0.00,,,0.00,0,Wunderground v.1.15,2013-05-28 05:10:00,
2013-05-28 00:11:00,67.2,64.2,29.64,SE,140,5.0,5.0,90,0.00,,,0.00,0,Wunderground v.1.15,2013-05-28 05:11:00,
2013-05-28 00:14:00,67.2,64.2,29.64,SE,142,3.0,5.0,90,0.00,,,0.00,0,Wunderground v.1.15,2013-05-28 05:14:00,
2013-05-28 00:17:00,67.1,64.1,29.64,SE,137,4.0,5.0,90,0.00,,,0.00,0,Wunderground v.1.15,2013-05-28 05:17:00,
2013-05-28 00:18:00,67.1,64.4,29.64,SE,128,0.0,5.0,91,0.00,,,0.00,0,Wunderground v.1.15,2013-05-28 05:18:00,
2013-05-28 00:23:00,66.9,64.2,29.64,ESE,111,0.0,3.0,91,0.00,,,0.00,0,Wunderground v.1.15,2013-05-28 05:23:00,
2013-05-28 00:26:00,66.8,64.1,29.64,ESE,115,2.0,3.0,91,0.00,,,0.01,0,Wunderground v.1.15,2013-05-28 05:26:00,
2013-05-28 00:28:00,66.7,64.0,29.64,ESE,115,1.0,3.0,91,0.00,,,0.01,0,Wunderground v.1.15,2013-05-28 05:28:00,
2013-05-28 00:29:00,66.7,64.3,29.64,ESE,118,2.0,3.0,92,0.00,,,0.01,0,Wunderground v.1.15,2013-05-28 05:29:00,
2013-05-28 00:32:00,66.7,64.3,29.65,SSE,165,4.0,4.0,92,0.00,,,0.01,0,Wunderground v.1.15,2013-05-28 05:32:00,
2013-05-28 00:35:00,66.5,64.4,29.65,South,169,2.0,4.0,93,0.06,,,0.02,0,Wunderground v.1.15,2013-05-28 05:35:00,
2013-05-28 00:36:00,66.5,64.4,29.66,SSE,155,4.0,4.0,93,0.06,,,0.02,0,Wunderground v.1.15,2013-05-28 05:36:00,
2013-05-28 00:38:00,66.4,64.3,29.65,SE,137,4.0,5.0,93,0.06,,,0.02,0,Wunderground v.1.15,2013-05-28 05:38:00,
2013-05-28 00:40:00,66.3,64.2,29.65,SE,140,2.0,3.0,93,0.06,,,0.02,0,Wunderground v.1.15,2013-05-28 05:40:00,
2013-05-28 00:41:00,66.3,64.2,29.65,SE,140,1.0,3.0,93,0.06,,,0.02,0,Wunderground v.1.15,2013-05-28 05:41:00,
2013-05-28 00:42:00,66.3,64.2,29.65,SE,140,4.0,4.0,93,0.06,,,0.02,0,Wunderground v.1.15,2013-05-28 05:42:00,
2013-05-28 00:43:00,66.3,64.2,29.65,SE,142,4.0,4.0,93,0.06,,,0.03,0,Wunderground v.1.15,2013-05-28 05:43:00,
2013-05-28 00:45:00,66.2,64.1,29.65,SE,144,2.0,4.0,93,0.06,,,0.03,0,Wunderground v.1.15,2013-05-28 05:45:00,
2013-05-28 00:47:00,66.2,64.4,29.65,SE,136,1.0,4.0,94,0.06,,,0.03,0,Wunderground v.1.15,2013-05-28 05:47:00,
2013-05-28 00:49:00,66.1,64.3,29.64,East,98,2.0,4.0,94,0.06,,,0.03,0,Wunderground v.1.15,2013-05-28 05:49:00,
2013-05-28 00:50:00,66.1,64.3,29.64,East,92,2.0,3.0,94,0.06,,,0.03,0,Wunderground v.1.15,2013-05-28 05:50:00,
2013-05-28 00:51:00,66.0,64.2,29.64,East,86,2.0,3.0,94,0.06,,,0.03,0,Wunderground v.1.15,2013-05-28 05:51:00,
2013-05-28 00:54:00,65.9,64.1,29.63,ENE,61,4.0,4.0,94,0.05,,,0.03,0,Wunderground v.1.15,2013-05-28 05:54:00,
2013-05-28 00:56:00,65.9,64.1,29.62,ENE,58,4.0,4.0,94,0.05,,,0.04,0,Wunderground v.1.15,2013-05-28 05:56:00,
2013-05-28 00:58:00,65.8,64.0,29.62,ENE,61,4.0,4.0,94,0.05,,,0.04,0,Wunderground v.1.15,2013-05-28 05:58:00,
2013-05-28 00:59:00,65.8,64.0,29.62,ENE,67,3.0,4.0,94,0.05,,,0.04,0,Wunderground v.1.15,2013-05-28 05:59:00,
2013-05-28 01:04:00,65.6,64.1,29.61,ENE,61,3.0,4.0,95,0.08,,,0.05,0,Wunderground v.1.15,2013-05-28 06:04:00,
2013-05-28 01:05:00,65.6,64.1,29.61,NE,55,5.0,5.0,95,0.08,,,0.05,0,Wunderground v.1.15,2013-05-28 06:05:00,
2013-05-28 01:06:00,65.6,64.1,29.61,ENE,67,2.0,5.0,95,0.23,,,0.06,0,Wunderground v.1.15,2013-05-28 06:06:00,
2013-05-28 01:09:00,65.5,64.0,29.61,ENE,65,1.0,5.0,95,0.17,,,0.06,0,Wunderground v.1.15,2013-05-28 06:09:00,
2013-05-28 01:11:00,65.5,64.0,29.61,ENE,65,1.0,2.0,95,0.11,,,0.06,0,Wunderground v.1.15,2013-05-28 06:11:00,
2013-05-28 01:14:00,65.4,63.9,29.62,ENE,74,2.0,2.0,95,0.08,,,0.07,0,Wunderground v.1.15,2013-05-28 06:14:00,
2013-05-28 01:15:00,65.4,63.9,29.63,SSE,149,4.0,4.0,95,0.08,,,0.07,0,Wunderground v.1.15,2013-05-28 06:15:00,
2013-05-28 01:18:00,65.4,63.9,29.64,SSW,209,5.0,5.0,95,0.08,,,0.07,0,Wunderground v.1.15,2013-05-28 06:18:00,
2013-05-28 01:20:00,65.3,63.8,29.64,South,182,8.0,8.0,95,0.10,,,0.08,0,Wunderground v.1.15,2013-05-28 06:20:00,
2013-05-28 01:22:00,65.4,63.9,29.64,SSW,195,7.0,8.0,95,0.10,,,0.08,0,Wunderground v.1.15,2013-05-28 06:22:00,
2013-05-28 01:26:00,65.6,64.1,29.64,South,182,6.0,9.0,95,0.13,,,0.09,0,Wunderground v.1.15,2013-05-28 06:26:00,
2013-05-28 01:27:00,65.7,63.9,29.64,South,186,6.0,9.0,94,0.13,,,0.09,0,Wunderground v.1.15,2013-05-28 06:27:00,
2013-05-28 01:29:00,65.7,63.9,29.64,South,188,5.0,9.0,94,0.12,,,0.10,0,Wunderground v.1.15,2013-05-28 06:29:00,
2013-05-28 01:30:00,65.8,64.0,29.64,South,186,8.0,8.0,94,0.12,,,0.10,0,Wunderground v.1.15,2013-05-28 06:30:00,
2013-05-28 01:33:00,65.9,64.1,29.64,South,186,4.0,8.0,94,0.12,,,0.10,0,Wunderground v.1.15,2013-05-28 06:33:00,
2013-05-28 01:34:00,65.9,64.1,29.64,South,174,7.0,8.0,94,0.10,,,0.10,0,Wunderground v.1.15,2013-05-28 06:34:00,
2013-05-28 01:35:00,65.9,64.1,29.64,South,173,6.0,8.0,94,0.09,,,0.10,0,Wunderground v.1.15,2013-05-28 06:35:00,
2013-05-28 01:39:00,65.9,64.1,29.64,SSE,153,9.0,11.0,94,0.08,,,0.11,0,Wunderground v.1.15,2013-05-28 06:39:00,
2013-05-28 01:41:00,66.0,64.2,29.64,South,176,8.0,9.0,94,0.11,,,0.12,0,Wunderground v.1.15,2013-05-28 06:41:00,
2013-05-28 01:44:00,65.8,64.0,29.64,SSE,153,9.0,14.0,94,0.11,,,0.12,0,Wunderground v.1.15,2013-05-28 06:44:00,
2013-05-28 01:45:00,65.7,63.6,29.64,SSE,159,13.0,14.0,93,0.15,,,0.12,0,Wunderground v.1.15,2013-05-28 06:45:00,
2013-05-28 01:46:00,65.6,63.5,29.64,SSE,155,13.0,14.0,93,0.15,,,0.13,0,Wunderground v.1.15,2013-05-28 06:46:00,
2013-05-28 01:48:00,65.4,63.3,29.64,SSE,165,11.0,14.0,93,0.15,,,0.13,0,Wunderground v.1.15,2013-05-28 06:48:00,
2013-05-28 01:52:00,65.1,63.0,29.63,SSE,150,12.0,12.0,93,0.16,,,0.14,0,Wunderground v.1.15,2013-05-28 06:52:00,
2013-05-28 01:53:00,65.1,63.0,29.62,SSE,159,13.0,13.0,93,0.15,,,0.15,0,Wunderground v.1.15,2013-05-28 06:53:00,
2013-05-28 01:54:00,65.1,63.3,29.62,SE,141,14.0,14.0,94,0.15,,,0.15,0,Wunderground v.1.15,2013-05-28 06:54:00,
2013-05-28 01:57:00,65.1,63.3,29.61,SE,140,13.0,17.0,94,0.17,,,0.16,0,Wunderground v.1.15,2013-05-28 06:57:00,
2013-05-28 01:59:00,65.0,63.2,29.60,SE,146,9.0,17.0,94,0.17,,,0.16,0,Wunderground v.1.15,2013-05-28 06:59:00,
2013-05-28 02:00:00,65.0,63.2,29.60,ESE,122,9.0,12.0,94,0.20,,,0.17,0,Wunderground v.1.15,2013-05-28 07:00:00,
2013-05-28 02:03:00,64.9,63.1,29.59,ESE,121,9.0,12.0,94,0.17,,,0.17,0,Wunderground v.1.15,2013-05-28 07:03:00,
2013-05-28 02:04:00,64.9,63.1,29.59,ESE,121,7.0,12.0,94,0.12,,,0.17,0,Wunderground v.1.15,2013-05-28 07:04:00,
2013-05-28 02:05:00,64.8,63.0,29.58,ESE,107,9.0,12.0,94,0.10,,,0.18,0,Wunderground v.1.15,2013-05-28 07:05:00,
2013-05-28 02:06:00,64.8,63.0,29.58,SE,126,7.0,12.0,94,0.10,,,0.18,0,Wunderground v.1.15,2013-05-28 07:06:00,
2013-05-28 02:08:00,64.7,62.9,29.58,ESE,115,10.0,12.0,94,0.10,,,0.18,0,Wunderground v.1.15,2013-05-28 07:08:00,
2013-05-28 02:09:00,64.7,62.9,29.58,ESE,110,12.0,13.0,94,0.10,,,0.18,0,Wunderground v.1.15,2013-05-28 07:09:00,
2013-05-28 02:10:00,64.7,62.9,29.57,SE,128,10.0,11.0,94,0.10,,,0.18,0,Wunderground v.1.15,2013-05-28 07:10:00,
2013-05-28 02:11:00,64.6,62.8,29.57,ESE,116,10.0,11.0,94,0.10,,,0.18,0,Wunderground v.1.15,2013-05-28 07:11:00,
2013-05-28 02:14:00,64.6,62.8,29.56,SE,140,9.0,13.0,94,0.07,,,0.18,0,Wunderground v.1.15,2013-05-28 07:14:00,
2013-05-28 02:15:00,64.5,62.7,29.56,ESE,123,11.0,13.0,94,0.06,,,0.18,0,Wunderground v.1.15,2013-05-28 07:15:00,
2013-05-28 02:16:00,64.6,62.8,29.56,ESE,106,7.0,13.0,94,0.06,,,0.19,0,Wunderground v.1.15,2013-05-28 07:16:00,
2013-05-28 02:17:00,64.5,62.7,29.55,SE,133,9.0,13.0,94,0.06,,,0.19,0,Wunderground v.1.15,2013-05-28 07:17:00,
2013-05-28 02:21:00,64.4,62.6,29.55,ESE,115,5.0,9.0,94,0.27,,,0.21,0,Wunderground v.1.15,2013-05-28 07:21:00,
2013-05-28 02:22:00,64.4,62.6,29.55,ESE,110,5.0,9.0,94,0.27,,,0.22,0,Wunderground v.1.15,2013-05-28 07:22:00,
2013-05-28 02:24:00,64.3,62.5,29.55,ESE,114,5.0,9.0,94,0.27,,,0.22,0,Wunderground v.1.15,2013-05-28 07:24:00,
2013-05-28 02:26:00,64.3,62.8,29.54,ESE,104,5.0,9.0,95,0.14,,,0.22,0,Wunderground v.1.15,2013-05-28 07:26:00,
2013-05-28 02:28:00,64.2,62.7,29.53,ESE,107,7.0,9.0,95,0.14,,,0.23,0,Wunderground v.1.15,2013-05-28 07:28:00,
2013-05-28 02:29:00,64.2,62.7,29.53,ESE,110,8.0,9.0,95,0.14,,,0.23,0,Wunderground v.1.15,2013-05-28 07:29:00,
2013-05-28 02:32:00,64.1,62.6,29.51,East,83,10.0,15.0,95,0.19,,,0.24,0,Wunderground v.1.15,2013-05-28 07:32:00,
2013-05-28 02:34:00,64.1,62.6,29.50,East,94,10.0,16.0,95,0.12,,,0.24,0,Wunderground v.1.15,2013-05-28 07:34:00,
2013-05-28 02:35:00,64.1,62.6,29.50,ESE,121,10.0,16.0,95,0.10,,,0.24,0,Wunderground v.1.15,2013-05-28 07:35:00,
2013-05-28 02:37:00,64.0,62.5,29.50,ESE,108,2.0,16.0,95,0.10,,,0.25,0,Wunderground v.1.15,2013-05-28 07:37:00,
2013-05-28 02:39:00,63.9,62.4,29.51,SSE,157,4.0,16.0,95,0.10,,,0.25,0,Wunderground v.1.15,2013-05-28 07:39:00,
2013-05-28 02:40:00,63.9,62.1,29.51,SE,145,5.0,9.0,94,0.10,,,0.25,0,Wunderground v.1.15,2013-05-28 07:40:00,
2013-05-28 02:42:00,64.0,62.2,29.52,SSE,153,8.0,9.0,94,0.09,,,0.25,0,Wunderground v.1.15,2013-05-28 07:42:00,
2013-05-28 02:43:00,64.1,62.3,29.52,South,178,7.0,9.0,94,0.08,,,0.25,0,Wunderground v.1.15,2013-05-28 07:43:00,
2013-05-28 02:45:00,64.3,62.5,29.52,SE,139,3.0,9.0,94,0.06,,,0.25,0,Wunderground v.1.15,2013-05-28 07:45:00,
2013-05-28 02:47:00,64.4,62.3,29.52,SE,130,4.0,9.0,93,0.05,,,0.25,0,Wunderground v.1.15,2013-05-28 07:47:00,
2013-05-28 02:48:00,64.5,62.4,29.52,SE,128,8.0,9.0,93,0.05,,,0.25,0,Wunderground v.1.15,2013-05-28 07:48:00,
2013-05-28 02:50:00,64.7,62.3,29.51,ESE,118,9.0,9.0,92,0.04,,,0.25,0,Wunderground v.1.15,2013-05-28 07:50:00,
2013-05-28 02:52:00,64.8,62.1,29.51,SE,132,8.0,11.0,91,0.04,,,0.25,0,Wunderground v.1.15,2013-05-28 07:52:00,
2013-05-28 02:53:00,64.8,62.1,29.51,SE,146,6.0,11.0,91,0.00,,,0.25,0,Wunderground v.1.15,2013-05-28 07:53:00,
2013-05-28 02:54:00,64.9,62.2,29.51,SE,145,5.0,11.0,91,0.00,,,0.25,0,Wunderground v.1.15,2013-05-28 07:54:00,
2013-05-28 02:55:00,64.9,62.2,29.51,SE,138,8.0,11.0,91,0.00,,,0.25,0,Wunderground v.1.15,2013-05-28 07:55:00,
2013-05-28 02:56:00,65.0,62.3,29.51,SE,125,6.0,11.0,91,0.00,,,0.25,0,Wunderground v.1.15,2013-05-28 07:56:00,
2013-05-28 02:57:00,65.0,62.0,29.50,ESE,109,8.0,11.0,90,0.00,,,0.25,0,Wunderground v.1.15,2013-05-28 07:57:00,
2013-05-28 02:59:00,65.0,62.0,29.50,East,92,8.0,11.0,90,0.00,,,0.25,0,Wunderground v.1.15,2013-05-28 07:59:00,
2013-05-28 03:01:00,65.0,62.0,29.50,ESE,108,8.0,10.0,90,0.00,,,0.25,0,Wunderground v.1.15,2013-05-28 08:01:00,
2013-05-28 03:02:00,65.0,62.0,29.50,East,95,13.0,13.0,90,0.00,,,0.25,0,Wunderground v.1.15,2013-05-28 08:02:00,
2013-05-28 03:03:00,65.0,62.0,29.50,ESE,104,13.0,14.0,90,0.00,,,0.25,0,Wunderground v.1.15,2013-05-28 08:03:00,
2013-05-28 03:06:00,65.2,61.9,29.51,SE,137,10.0,14.0,89,0.00,,,0.25,0,Wunderground v.1.15,2013-05-28 08:06:00,
2013-05-28 03:08:00,65.3,62.0,29.52,SE,135,6.0,14.0,89,0.00,,,0.25,0,Wunderground v.1.15,2013-05-28 08:08:00,
2013-05-28 03:09:00,65.4,62.1,29.52,ESE,119,7.0,14.0,89,0.00,,,0.25,0,Wunderground v.1.15,2013-05-28 08:09:00,
2013-05-28 03:12:00,65.2,61.9,29.52,ESE,123,8.0,9.0,89,0.00,,,0.25,0,Wunderground v.1.15,2013-05-28 08:12:00,
2013-05-28 03:13:00,65.1,61.8,29.52,ESE,121,4.0,9.0,89,0.00,,,0.25,0,Wunderground v.1.15,2013-05-28 08:13:00,
2013-05-28 03:14:00,65.1,61.8,29.52,ESE,120,7.0,9.0,89,0.00,,,0.25,0,Wunderground v.1.15,2013-05-28 08:14:00,
2013-05-28 03:15:00,65.0,61.7,29.52,SE,136,4.0,9.0,89,0.00,,,0.25,0,Wunderground v.1.15,2013-05-28 08:15:00,
2013-05-28 03:16:00,64.9,61.9,29.52,SE,126,5.0,9.0,90,0.00,,,0.25,0,Wunderground v.1.15,2013-05-28 08:16:00,
2013-05-28 03:18:00,64.8,61.8,29.53,SE,134,4.0,9.0,90,0.00,,,0.25,0,Wunderground v.1.15,2013-05-28 08:18:00,
2013-05-28 03:20:00,64.8,61.8,29.53,SE,137,2.0,9.0,90,0.00,,,0.25,0,Wunderground v.1.15,2013-05-28 08:20:00,
2013-05-28 03:21:00,64.8,61.8,29.53,SE,146,3.0,5.0,90,0.00,,,0.25,0,Wunderground v.1.15,2013-05-28 08:21:00,
2013-05-28 03:25:00,64.5,61.8,29.55,WSW,252,5.0,6.0,91,0.00,,,0.25,0,Wunderground v.1.15,2013-05-28 08:25:00,
2013-05-28 03:26:00,64.4,61.7,29.55,West,262,8.0,8.0,91,0.00,,,0.25,0,Wunderground v.1.15,2013-05-28 08:26:00,
2013-05-28 03:27:00,64.4,61.7,29.56,WNW,284,9.0,9.0,91,0.00,,,0.25,0,Wunderground v.1.15,2013-05-28 08:27:00,
2013-05-28 03:28:00,64.4,61.7,29.56,WNW,286,11.0,11.0,91,0.00,,,0.25,0,Wunderground v.1.15,2013-05-28 08:28:00,
2013-05-28 03:31:00,64.3,61.6,29.56,West,281,9.0,9.0,91,0.00,,,0.25,0,Wunderground v.1.15,2013-05-28 08:31:00,
2013-05-28 03:32:00,64.3,61.6,29.56,WNW,291,5.0,10.0,91,0.00,,,0.25,0,Wunderground v.1.15,2013-05-28 08:32:00,
2013-05-28 03:33:00,64.3,61.6,29.56,WNW,288,7.0,10.0,91,0.00,,,0.25,0,Wunderground v.1.15,2013-05-28 08:33:00,
2013-05-28 03:34:00,64.3,61.6,29.56,WNW,300,2.0,10.0,91,0.00,,,0.25,0,Wunderground v.1.15,2013-05-28 08:34:00,
2013-05-28 03:36:00,64.4,61.7,29.56,WNW,295,3.0,10.0,91,0.00,,,0.25,0,Wunderground v.1.15,2013-05-28 08:36:00,
2013-05-28 03:38:00,64.3,61.6,29.56,WNW,294,9.0,10.0,91,0.00,,,0.25,0,Wunderground v.1.15,2013-05-28 08:38:00,
2013-05-28 03:39:00,64.3,61.6,29.56,WNW,298,7.0,10.0,91,0.00,,,0.25,0,Wunderground v.1.15,2013-05-28 08:39:00,
2013-05-28 03:41:00,64.3,61.6,29.56,WNW,302,6.0,6.0,91,0.00,,,0.25,0,Wunderground v.1.15,2013-05-28 08:41:00,
2013-05-28 03:42:00,64.3,61.6,29.56,WNW,287,5.0,7.0,91,0.00,,,0.25,0,Wunderground v.1.15,2013-05-28 08:42:00,
2013-05-28 03:44:00,64.3,61.6,29.56,WNW,292,6.0,7.0,91,0.00,,,0.25,0,Wunderground v.1.15,2013-05-28 08:44:00,
2013-05-28 03:46:00,64.3,61.6,29.56,WNW,289,6.0,9.0,91,0.00,,,0.25,0,Wunderground v.1.15,2013-05-28 08:46:00,
2013-05-28 03:49:00,64.4,61.7,29.56,WNW,298,3.0,9.0,91,0.00,,,0.25,0,Wunderground v.1.15,2013-05-28 08:49:00,
2013-05-28 03:50:00,64.4,61.7,29.56,WNW,298,5.0,9.0,91,0.00,,,0.25,0,Wunderground v.1.15,2013-05-28 08:50:00,
2013-05-28 03:51:00,64.4,61.7,29.57,WNW,298,4.0,5.0,91,0.00,,,0.25,0,Wunderground v.1.15,2013-05-28 08:51:00,
2013-05-28 03:52:00,64.3,61.6,29.57,WNW,298,4.0,5.0,91,0.00,,,0.25,0,Wunderground v.1.15,2013-05-28 08:52:00,
2013-05-28 03:54:00,64.2,61.5,29.57,WNW,298,0.0,5.0,91,0.00,,,0.25,0,Wunderground v.1.15,2013-05-28 08:54:00,
2013-05-28 03:55:00,64.1,61.4,29.57,WNW,298,0.0,5.0,91,0.00,,,0.25,0,Wunderground v.1.15,2013-05-28 08:55:00,
2013-05-28 03:58:00,63.9,61.2,29.57,WNW,298,0.0,5.0,91,0.00,,,0.25,0,Wunderground v.1.15,2013-05-28 08:58:00,
2013-05-28 04:00:00,63.7,61.0,29.57,WNW,298,0.0,2.0,91,0.00,,,0.25,0,Wunderground v.1.15,2013-05-28 09:00:00,
2013-05-28 04:02:00,63.5,61.1,29.57,WNW,298,0.0,2.0,92,0.00,,,0.25,0,Wunderground v.1.15,2013-05-28 09:02:00,
2013-05-28 04:03:00,63.4,61.0,29.57,WNW,298,0.0,2.0,92,0.00,,,0.25,0,Wunderground v.1.15,2013-05-28 09:03:00,
2013-05-28 04:04:00,63.4,61.0,29.57,WNW,298,0.0,2.0,92,0.00,,,0.25,0,Wunderground v.1.15,2013-05-28 09:04:00,
2013-05-28 04:06:00,63.4,61.0,29.57,WNW,298,0.0,2.0,92,0.00,,,0.25,0,Wunderground v.1.15,2013-05-28 09:06:00,
2013-05-28 04:07:00,63.3,60.9,29.57,WNW,298,0.0,2.0,92,0.00,,,0.25,0,Wunderground v.1.15,2013-05-28 09:07:00,
2013-05-28 04:09:00,63.2,60.8,29.57,WNW,298,0.0,2.0,92,0.00,,,0.25,0,Wunderground v.1.15,2013-05-28 09:09:00,
2013-05-28 04:10:00,63.1,61.0,29.58,WNW,298,0.0,0.0,93,0.00,,,0.25,0,Wunderground v.1.15,2013-05-28 09:10:00,
2013-05-28 04:12:00,63.0,60.9,29.58,WNW,298,0.0,0.0,93,0.00,,,0.25,0,Wunderground v.1.15,2013-05-28 09:12:00,
2013-05-28 04:14:00,62.9,60.8,29.58,WNW,298,0.0,0.0,93,0.00,,,0.25,0,Wunderground v.1.15,2013-05-28 09:14:00,
2013-05-28 04:15:00,62.9,60.8,29.58,WNW,298,0.0,0.0,93,0.00,,,0.25,0,Wunderground v.1.15,2013-05-28 09:15:00,
2013-05-28 04:18:00,62.8,60.7,29.59,WNW,298,0.0,0.0,93,0.00,,,0.25,0,Wunderground v.1.15,2013-05-28 09:18:00,
2013-05-28 04:19:00,62.7,60.6,29.59,WNW,298,0.0,0.0,93,0.00,,,0.25,0,Wunderground v.1.15,2013-05-28 09:19:00,
2013-05-28 04:20:00,62.7,60.9,29.59,WNW,298,0.0,0.0,94,0.00,,,0.25,0,Wunderground v.1.15,2013-05-28 09:20:00,
2013-05-28 04:21:00,62.7,60.9,29.59,WNW,298,0.0,0.0,94,0.00,,,0.25,0,Wunderground v.1.15,2013-05-28 09:21:00,
2013-05-28 04:24:00,62.3,60.2,29.59,WNW,298,0.0,0.0,93,0.00,,,0.25,0,Wunderground v.1.15,2013-05-28 09:24:00,
2013-05-28 04:25:00,62.2,60.2,29.59,WNW,298,0.0,0.0,93,0.00,,,0.25,0,Wunderground v.1.15,2013-05-28 09:25:00,
2013-05-28 04:26:00,62.1,60.4,29.59,WNW,298,0.0,0.0,94,0.00,,,0.25,0,Wunderground v.1.15,2013-05-28 09:26:00,
2013-05-28 04:27:00,62.1,60.4,29.60,WNW,298,0.0,0.0,94,0.00,,,0.25,0,Wunderground v.1.15,2013-05-28 09:27:00,
2013-05-28 04:31:00,61.9,60.2,29.59,WNW,298,0.0,0.0,94,0.00,,,0.25,0,Wunderground v.1.15,2013-05-28 09:31:00,
2013-05-28 04:32:00,61.8,60.4,29.59,WNW,298,0.0,0.0,95,0.00,,,0.25,0,Wunderground v.1.15,2013-05-28 09:32:00,
2013-05-28 04:33:00,61.8,60.4,29.59,WNW,298,0.0,0.0,95,0.00,,,0.25,0,Wunderground v.1.15,2013-05-28 09:33:00,
2013-05-28 04:35:00,61.7,60.3,29.59,WNW,298,0.0,0.0,95,0.00,,,0.25,0,Wunderground v.1.15,2013-05-28 09:35:00,
2013-05-28 04:36:00,61.6,60.2,29.59,WNW,298,0.0,0.0,95,0.00,,,0.25,0,Wunderground v.1.15,2013-05-28 09:36:00,
2013-05-28 04:37:00,61.6,60.2,29.59,WNW,298,0.0,0.0,95,0.00,,,0.25,0,Wunderground v.1.15,2013-05-28 09:37:00,
2013-05-28 04:38:00,61.6,60.2,29.59,WNW,298,0.0,0.0,95,0.00,,,0.25,0,Wunderground v.1.15,2013-05-28 09:38:00,
2013-05-28 04:39:00,61.6,60.2,29.59,WNW,298,0.0,0.0,95,0.00,,,0.25,0,Wunderground v.1.15,2013-05-28 09:39:00,
2013-05-28 04:40:00,61.5,60.1,29.59,WNW,298,2.0,2.0,95,0.00,,,0.25,0,Wunderground v.1.15,2013-05-28 09:40:00,
2013-05-28 04:41:00,61.4,60.0,29.59,WNW,296,2.0,2.0,95,0.00,,,0.25,0,Wunderground v.1.15,2013-05-28 09:41:00,
2013-05-28 04:43:00,61.3,59.9,29.59,WNW,296,1.0,2.0,95,0.00,,,0.25,0,Wunderground v.1.15,2013-05-28 09:43:00,
2013-05-28 04:44:00,61.3,60.2,29.59,WNW,296,0.0,2.0,96,0.00,,,0.25,0,Wunderground v.1.15,2013-05-28 09:44:00,
2013-05-28 04:45:00,61.3,60.2,29.59,WNW,296,0.0,2.0,96,0.00,,,0.25,0,Wunderground v.1.15,2013-05-28 09:45:00,
2013-05-28 04:47:00,61.3,60.2,29.59,WNW,296,0.0,2.0,96,0.00,,,0.25,0,Wunderground v.1.15,2013-05-28 09:47:00,
2013-05-28 04:49:00,61.4,60.2,29.59,WNW,296,0.0,2.0,96,0.00,,,0.25,0,Wunderground v.1.15,2013-05-28 09:49:00,
2013-05-28 04:50:00,61.4,60.2,29.59,WNW,296,0.0,0.0,96,0.00,,,0.25,0,Wunderground v.1.15,2013-05-28 09:50:00,
2013-05-28 04:51:00,61.4,60.2,29.59,WNW,296,0.0,0.0,96,0.00,,,0.25,0,Wunderground v.1.15,2013-05-28 09:51:00,
2013-05-28 04:52:00,61.4,60.2,29.59,WNW,296,0.0,0.0,96,0.00,,,0.25,0,Wunderground v.1.15,2013-05-28 09:52:00,
2013-05-28 04:53:00,61.3,60.2,29.59,WNW,296,0.0,0.0,96,0.00,,,0.25,0,Wunderground v.1.15,2013-05-28 09:53:00,
2013-05-28 04:55:00,61.1,60.0,29.59,WNW,296,0.0,0.0,96,0.00,,,0.25,0,Wunderground v.1.15,2013-05-28 09:55:00,
2013-05-28 04:56:00,61.1,60.0,29.59,WNW,296,0.0,0.0,96,0.00,,,0.25,0,Wunderground v.1.15,2013-05-28 09:56:00,
2013-05-28 04:58:00,61.1,60.0,29.59,WNW,296,0.0,0.0,96,0.00,,,0.25,0,Wunderground v.1.15,2013-05-28 09:58:00,
2013-05-28 05:00:00,60.9,59.8,29.59,WNW,296,0.0,0.0,96,0.00,,,0.25,0,Wunderground v.1.15,2013-05-28 10:00:00,
2013-05-28 05:01:00,60.8,59.7,29.59,WNW,296,0.0,0.0,96,0.00,,,0.25,0,Wunderground v.1.15,2013-05-28 10:01:00,
2013-05-28 05:02:00,60.9,59.8,29.59,WNW,296,0.0,0.0,96,0.00,,,0.25,0,Wunderground v.1.15,2013-05-28 10:02:00,
2013-05-28 05:03:00,60.9,59.8,29.59,WNW,296,0.0,0.0,96,0.00,,,0.25,0,Wunderground v.1.15,2013-05-28 10:03:00,
2013-05-28 05:05:00,60.9,59.8,29.59,WNW,296,0.0,0.0,96,0.00,,,0.25,0,Wunderground v.1.15,2013-05-28 10:05:00,
2013-05-28 05:06:00,60.8,59.7,29.60,WNW,296,0.0,0.0,96,0.00,,,0.25,0,Wunderground v.1.15,2013-05-28 10:06:00,
2013-05-28 05:07:00,60.7,59.6,29.60,WNW,296,0.0,0.0,96,0.00,,,0.25,0,Wunderground v.1.15,2013-05-28 10:07:00,
2013-05-28 05:08:00,60.7,59.6,29.60,WNW,296,0.0,0.0,96,0.00,,,0.25,0,Wunderground v.1.15,2013-05-28 10:08:00,
2013-05-28 05:10:00,60.6,59.5,29.60,WNW,296,0.0,0.0,96,0.00,,,0.25,0,Wunderground v.1.15,2013-05-28 10:10:00,
2013-05-28 05:12:00,60.3,59.2,29.59,WNW,296,0.0,0.0,96,0.00,,,0.25,0,Wunderground v.1.15,2013-05-28 10:12:00,
2013-05-28 05:13:00,60.3,59.2,29.59,WNW,296,0.0,0.0,96,0.00,,,0.25,0,Wunderground v.1.15,2013-05-28 10:13:00,
2013-05-28 05:14:00,60.4,59.3,29.59,WNW,296,0.0,0.0,96,0.00,,,0.25,0,Wunderground v.1.15,2013-05-28 10:14:00,
2013-05-28 05:17:00,60.6,59.7,29.59,WNW,296,0.0,0.0,97,0.00,,,0.25,0,Wunderground v.1.15,2013-05-28 10:17:00,
2013-05-28 05:18:00,60.4,59.3,29.59,WNW,296,0.0,0.0,96,0.00,,,0.25,0,Wunderground v.1.15,2013-05-28 10:18:00,
2013-05-28 05:19:00,60.4,59.3,29.59,WNW,296,0.0,0.0,96,0.00,,,0.25,0,Wunderground v.1.15,2013-05-28 10:19:00,
2013-05-28 05:20:00,60.4,59.3,29.59,WNW,296,0.0,0.0,96,0.00,,,0.25,0,Wunderground v.1.15,2013-05-28 10:20:00,
2013-05-28 05:22:00,60.4,59.5,29.59,WNW,296,0.0,0.0,97,0.00,,,0.25,0,Wunderground v.1.15,2013-05-28 10:22:00,
2013-05-28 05:24:00,60.5,59.6,29.59,WNW,296,0.0,0.0,97,0.00,,,0.25,0,Wunderground v.1.15,2013-05-28 10:24:00,
2013-05-28 05:25:00,60.5,59.6,29.59,WNW,296,0.0,0.0,97,0.00,,,0.25,0,Wunderground v.1.15,2013-05-28 10:25:00,
2013-05-28 05:27:00,60.5,59.6,29.59,WNW,296,0.0,0.0,97,0.00,,,0.25,0,Wunderground v.1.15,2013-05-28 10:27:00,
2013-05-28 05:30:00,60.4,59.5,29.59,WNW,296,0.0,0.0,97,0.00,,,0.25,0,Wunderground v.1.15,2013-05-28 10:30:00,
2013-05-28 05:33:00,60.4,59.5,29.59,WNW,296,0.0,0.0,97,0.00,,,0.25,0,Wunderground v.1.15,2013-05-28 10:33:00,
2013-05-28 05:35:00,60.3,59.4,29.59,WNW,296,0.0,0.0,97,0.00,,,0.25,0,Wunderground v.1.15,2013-05-28 10:35:00,
2013-05-28 05:36:00,60.3,59.4,29.59,WNW,296,0.0,0.0,97,0.00,,,0.25,0,Wunderground v.1.15,2013-05-28 10:36:00,
2013-05-28 05:38:00,60.4,59.5,29.59,WNW,296,0.0,0.0,97,0.00,,,0.25,0,Wunderground v.1.15,2013-05-28 10:38:00,
2013-05-28 05:40:00,60.4,59.5,29.60,WNW,296,0.0,0.0,97,0.00,,,0.25,0,Wunderground v.1.15,2013-05-28 10:40:00,
2013-05-28 05:41:00,60.5,59.6,29.60,WNW,296,0.0,0.0,97,0.00,,,0.25,0,Wunderground v.1.15,2013-05-28 10:41:00,
2013-05-28 05:43:00,60.5,59.6,29.60,WNW,296,0.0,0.0,97,0.00,,,0.25,0,Wunderground v.1.15,2013-05-28 10:43:00,
2013-05-28 05:45:00,60.4,59.5,29.60,WNW,296,0.0,0.0,97,0.00,,,0.25,0,Wunderground v.1.15,2013-05-28 10:45:00,
2013-05-28 05:47:00,60.4,59.5,29.60,WNW,296,0.0,0.0,97,0.00,,,0.25,0,Wunderground v.1.15,2013-05-28 10:47:00,
2013-05-28 05:48:00,60.3,59.4,29.60,WNW,296,0.0,0.0,97,0.00,,,0.25,0,Wunderground v.1.15,2013-05-28 10:48:00,
2013-05-28 05:50:00,60.2,59.3,29.60,WNW,296,0.0,0.0,97,0.00,,,0.25,0,Wunderground v.1.15,2013-05-28 10:50:00,
2013-05-28 05:52:00,60.2,59.3,29.60,WNW,296,0.0,0.0,97,0.00,,,0.25,0,Wunderground v.1.15,2013-05-28 10:52:00,
2013-05-28 05:53:00,60.2,59.3,29.60,WNW,296,0.0,0.0,97,0.00,,,0.25,5,Wunderground v.1.15,2013-05-28 10:53:00,
2013-05-28 05:55:00,60.2,59.3,29.60,WNW,296,0.0,0.0,97,0.00,,,0.25,5,Wunderground v.1.15,2013-05-28 10:55:00,
2013-05-28 05:57:00,60.2,59.3,29.60,WNW,296,0.0,0.0,97,0.00,,,0.25,5,Wunderground v.1.15,2013-05-28 10:57:00,
2013-05-28 05:58:00,60.1,59.2,29.60,WNW,296,0.0,0.0,97,0.00,,,0.25,7,Wunderground v.1.15,2013-05-28 10:58:00,
2013-05-28 05:59:00,60.0,59.1,29.60,WNW,296,0.0,0.0,97,0.00,,,0.25,9,Wunderground v.1.15,2013-05-28 10:59:00,
2013-05-28 06:00:00,60.0,59.1,29.60,WNW,296,0.0,0.0,97,0.00,,,0.25,9,Wunderground v.1.15,2013-05-28 11:00:00,
2013-05-28 06:01:00,59.9,59.0,29.60,WNW,296,0.0,0.0,97,0.00,,,0.25,11,Wunderground v.1.15,2013-05-28 11:01:00,
2013-05-28 06:03:00,59.8,58.9,29.61,WNW,296,0.0,0.0,97,0.00,,,0.25,12,Wunderground v.1.15,2013-05-28 11:03:00,
2013-05-28 06:05:00,59.9,59.0,29.60,WNW,296,0.0,0.0,97,0.00,,,0.25,14,Wunderground v.1.15,2013-05-28 11:05:00,
2013-05-28 06:06:00,60.0,59.1,29.60,WNW,296,1.0,1.0,97,0.00,,,0.25,14,Wunderground v.1.15,2013-05-28 11:06:00,
2013-05-28 06:08:00,60.3,59.7,29.60,West,259,2.0,2.0,98,0.00,,,0.25,18,Wunderground v.1.15,2013-05-28 11:08:00,
2013-05-28 06:09:00,60.4,59.8,29.61,WSW,258,2.0,2.0,98,0.00,,,0.25,18,Wunderground v.1.15,2013-05-28 11:09:00,
2013-05-28 06:11:00,60.5,59.9,29.61,WSW,248,2.0,2.0,98,0.00,,,0.25,19,Wunderground v.1.15,2013-05-28 11:11:00,
2013-05-28 06:13:00,60.3,59.4,29.61,WSW,246,2.0,2.0,97,0.00,,,0.25,21,Wunderground v.1.15,2013-05-28 11:13:00,
2013-05-28 06:14:00,60.3,59.4,29.61,WSW,246,2.0,2.0,97,0.00,,,0.25,21,Wunderground v.1.15,2013-05-28 11:14:00,
2013-05-28 06:17:00,60.3,59.4,29.60,WSW,240,3.0,3.0,97,0.00,,,0.25,21,Wunderground v.1.15,2013-05-28 11:17:00,
2013-05-28 06:18:00,60.4,59.8,29.60,WSW,240,2.0,3.0,98,0.00,,,0.25,21,Wunderground v.1.15,2013-05-28 11:18:00,
2013-05-28 06:19:00,60.5,59.9,29.60,WSW,240,1.0,3.0,98,0.00,,,0.25,21,Wunderground v.1.15,2013-05-28 11:19:00,
2013-05-28 06:20:00,60.5,59.9,29.60,SW,234,3.0,3.0,98,0.00,,,0.25,21,Wunderground v.1.15,2013-05-28 11:20:00,
2013-05-28 06:23:00,60.7,60.1,29.60,SE,130,3.0,4.0,98,0.00,,,0.25,23,Wunderground v.1.15,2013-05-28 11:23:00,
2013-05-28 06:24:00,60.8,60.2,29.60,SE,130,2.0,4.0,98,0.00,,,0.25,23,Wunderground v.1.15,2013-05-28 11:24:00,
2013-05-28 06:26:00,60.8,60.2,29.60,SE,130,1.0,4.0,98,0.00,,,0.25,23,Wunderground v.1.15,2013-05-28 11:26:00,
2013-05-28 06:28:00,60.9,60.3,29.60,SE,130,2.0,4.0,98,0.00,,,0.25,25,Wunderground v.1.15,2013-05-28 11:28:00,
2013-05-28 06:30:00,61.0,60.4,29.60,SE,130,1.0,2.0,98,0.00,,,0.25,26,Wunderground v.1.15,2013-05-28 11:30:00,
2013-05-28 06:31:00,61.0,60.4,29.59,SE,130,1.0,2.0,98,0.00,,,0.25,26,Wunderground v.1.15,2013-05-28 11:31:00,
2013-05-28 06:33:00,61.1,60.5,29.60,SE,130,3.0,3.0,98,0.00,,,0.25,32,Wunderground v.1.15,2013-05-28 11:33:00,
2013-05-28 06:36:00,61.1,60.5,29.59,SE,136,0.0,3.0,98,0.00,,,0.25,33,Wunderground v.1.15,2013-05-28 11:36:00,
2013-05-28 06:37:00,61.1,60.5,29.59,SE,136,0.0,3.0,98,0.00,,,0.25,33,Wunderground v.1.15,2013-05-28 11:37:00,
2013-05-28 06:38:00,61.1,60.2,29.59,SE,136,0.0,3.0,97,0.00,,,0.25,37,Wunderground v.1.15,2013-05-28 11:38:00,
2013-05-28 06:39:00,61.1,60.2,29.59,SE,136,0.0,3.0,97,0.00,,,0.25,40,Wunderground v.1.15,2013-05-28 11:39:00,
2013-05-28 06:41:00,61.0,60.4,29.59,SE,139,1.0,3.0,98,0.00,,,0.25,47,Wunderground v.1.15,2013-05-28 11:41:00,
2013-05-28 06:42:00,60.9,60.0,29.59,SE,139,1.0,3.0,97,0.00,,,0.25,51,Wunderground v.1.15,2013-05-28 11:42:00,
2013-05-28 06:44:00,61.0,60.4,29.59,SE,139,1.0,3.0,98,0.00,,,0.25,77,Wunderground v.1.15,2013-05-28 11:44:00,
2013-05-28 06:45:00,61.0,60.4,29.59,SE,139,1.0,3.0,98,0.00,,,0.25,77,Wunderground v.1.15,2013-05-28 11:45:00,
2013-05-28 06:46:00,61.0,60.4,29.59,SE,139,0.0,3.0,98,0.00,,,0.25,86,Wunderground v.1.15,2013-05-28 11:46:00,
2013-05-28 06:48:00,61.1,60.2,29.59,SE,139,0.0,3.0,97,0.00,,,0.25,98,Wunderground v.1.15,2013-05-28 11:48:00,
2013-05-28 06:51:00,61.2,60.3,29.59,SE,139,0.0,2.0,97,0.00,,,0.25,91,Wunderground v.1.15,2013-05-28 11:51:00,
2013-05-28 06:52:00,61.2,60.3,29.59,SE,139,0.0,2.0,97,0.00,,,0.25,81,Wunderground v.1.15,2013-05-28 11:52:00,
2013-05-28 06:53:00,61.2,60.3,29.59,SE,139,0.0,2.0,97,0.00,,,0.25,81,Wunderground v.1.15,2013-05-28 11:53:00,
2013-05-28 06:56:00,61.2,60.3,29.59,SE,139,1.0,2.0,97,0.00,,,0.25,95,Wunderground v.1.15,2013-05-28 11:56:00,
2013-05-28 06:57:00,61.3,60.4,29.59,SE,139,0.0,2.0,97,0.00,,,0.25,113,Wunderground v.1.15,2013-05-28 11:57:00,
2013-05-28 06:58:00,61.3,60.4,29.59,SE,139,1.0,2.0,97,0.00,,,0.25,113,Wunderground v.1.15,2013-05-28 11:58:00,
2013-05-28 07:01:00,61.5,60.9,29.59,SE,143,3.0,3.0,98,0.00,,,0.25,128,Wunderground v.1.15,2013-05-28 12:01:00,
2013-05-28 07:03:00,61.5,60.9,29.59,SSE,156,3.0,4.0,98,0.00,,,0.25,114,Wunderground v.1.15,2013-05-28 12:03:00,
2013-05-28 07:05:00,61.5,60.9,29.59,SSE,159,2.0,4.0,98,0.00,,,0.25,88,Wunderground v.1.15,2013-05-28 12:05:00,
2013-05-28 07:06:00,61.6,61.0,29.59,SSE,160,4.0,5.0,98,0.00,,,0.25,102,Wunderground v.1.15,2013-05-28 12:06:00,
2013-05-28 07:08:00,61.7,61.1,29.58,SSE,159,5.0,6.0,98,0.00,,,0.25,113,Wunderground v.1.15,2013-05-28 12:08:00,
2013-05-28 07:09:00,61.8,61.2,29.58,SSE,163,4.0,6.0,98,0.00,,,0.25,111,Wunderground v.1.15,2013-05-28 12:09:00,
2013-05-28 07:10:00,61.8,61.2,29.58,SSE,160,4.0,4.0,98,0.00,,,0.25,107,Wunderground v.1.15,2013-05-28 12:10:00,
2013-05-28 07:12:00,62.0,61.4,29.58,SSE,157,6.0,6.0,98,0.00,,,0.25,107,Wunderground v.1.15,2013-05-28 12:12:00,
2013-05-28 07:15:00,62.2,61.6,29.58,SSE,147,6.0,6.0,98,0.00,,,0.25,146,Wunderground v.1.15,2013-05-28 12:15:00,
2013-05-28 07:16:00,62.2,61.6,29.58,SSE,149,5.0,6.0,98,0.00,,,0.25,146,Wunderground v.1.15,2013-05-28 12:16:00,
2013-05-28 07:17:00,62.3,61.7,29.58,SE,143,4.0,7.0,98,0.00,,,0.25,179,Wunderground v.1.15,2013-05-28 12:17:00,
2013-05-28 07:22:00,62.8,62.2,29.58,SE,144,6.0,8.0,98,0.00,,,0.25,204,Wunderground v.1.15,2013-05-28 12:22:00,
2013-05-28 07:24:00,63.0,62.4,29.58,SSE,149,7.0,8.0,98,0.00,,,0.25,200,Wunderground v.1.15,2013-05-28 12:24:00,
2013-05-28 07:27:00,63.4,62.8,29.58,SE,142,6.0,8.0,98,0.00,,,0.25,213,Wunderground v.1.15,2013-05-28 12:27:00,
2013-05-28 07:28:00,63.5,62.9,29.58,SSE,149,8.0,8.0,98,0.00,,,0.25,141,Wunderground v.1.15,2013-05-28 12:28:00,
2013-05-28 07:29:00,63.5,62.9,29.58,SE,141,8.0,8.0,98,0.00,,,0.25,141,Wunderground v.1.15,2013-05-28 12:29:00,
2013-05-28 07:30:00,63.6,63.0,29.58,SE,136,8.0,9.0,98,0.00,,,0.25,195,Wunderground v.1.15,2013-05-28 12:30:00,
2013-05-28 07:32:00,63.8,62.9,29.58,SE,139,5.0,9.0,97,0.00,,,0.25,229,Wunderground v.1.15,2013-05-28 12:32:00,
2013-05-28 07:33:00,63.9,63.0,29.58,SE,136,5.0,9.0,97,0.00,,,0.25,229,Wunderground v.1.15,2013-05-28 12:33:00,
2013-05-28 07:34:00,64.0,63.4,29.58,SE,136,8.0,9.0,98,0.00,,,0.25,244,Wunderground v.1.15,2013-05-28 12:34:00,
2013-05-28 07:35:00,64.0,63.1,29.58,SE,136,8.0,9.0,97,0.00,,,0.25,244,Wunderground v.1.15,2013-05-28 12:35:00,
2013-05-28 07:36:00,64.0,63.1,29.58,ESE,119,5.0,9.0,97,0.00,,,0.25,244,Wunderground v.1.15,2013-05-28 12:36:00,
2013-05-28 07:38:00,64.2,63.3,29.58,ESE,122,5.0,9.0,97,0.00,,,0.25,223,Wunderground v.1.15,2013-05-28 12:38:00,
2013-05-28 07:39:00,64.2,63.3,29.57,SSE,153,8.0,9.0,97,0.00,,,0.25,243,Wunderground v.1.15,2013-05-28 12:39:00,
2013-05-28 07:41:00,64.3,63.4,29.57,SE,139,4.0,8.0,97,0.00,,,0.25,265,Wunderground v.1.15,2013-05-28 12:41:00,
2013-05-28 07:42:00,64.5,63.6,29.57,SE,146,8.0,8.0,97,0.00,,,0.25,267,Wunderground v.1.15,2013-05-28 12:42:00,
2013-05-28 07:44:00,64.5,63.6,29.57,SE,143,7.0,8.0,97,0.00,,,0.25,271,Wunderground v.1.15,2013-05-28 12:44:00,
2013-05-28 07:45:00,64.6,63.7,29.57,SE,144,4.0,8.0,97,0.00,,,0.25,271,Wunderground v.1.15,2013-05-28 12:45:00,
2013-05-28 07:46:00,64.7,63.8,29.57,SE,140,6.0,8.0,97,0.00,,,0.25,279,Wunderground v.1.15,2013-05-28 12:46:00,
2013-05-28 07:47:00,64.8,63.9,29.57,SE,138,6.0,8.0,97,0.00,,,0.25,281,Wunderground v.1.15,2013-05-28 12:47:00,
2013-05-28 07:48:00,64.9,63.7,29.57,SE,143,7.0,8.0,96,0.00,,,0.25,285,Wunderground v.1.15,2013-05-28 12:48:00,
2013-05-28 07:50:00,65.0,63.8,29.57,SE,143,7.0,7.0,96,0.00,,,0.25,281,Wunderground v.1.15,2013-05-28 12:50:00,
2013-05-28 07:51:00,65.1,63.9,29.57,SE,140,4.0,7.0,96,0.00,,,0.25,281,Wunderground v.1.15,2013-05-28 12:51:00,
2013-05-28 07:52:00,65.3,64.1,29.57,SSE,147,10.0,10.0,96,0.00,,,0.25,302,Wunderground v.1.15,2013-05-28 12:52:00,
2013-05-28 07:53:00,65.3,64.1,29.57,SSE,155,6.0,10.0,96,0.00,,,0.25,309,Wunderground v.1.15,2013-05-28 12:53:00,
2013-05-28 07:54:00,65.4,64.2,29.57,SE,144,7.0,10.0,96,0.00,,,0.25,221,Wunderground v.1.15,2013-05-28 12:54:00,
2013-05-28 07:55:00,65.4,64.2,29.57,SSE,154,7.0,10.0,96,0.00,,,0.25,221,Wunderground v.1.15,2013-05-28 12:55:00,
2013-05-28 07:56:00,65.4,64.2,29.57,SE,132,6.0,10.0,96,0.00,,,0.25,149,Wunderground v.1.15,2013-05-28 12:56:00,
2013-05-28 07:59:00,65.4,63.9,29.57,SSE,153,9.0,10.0,95,0.00,,,0.25,345,Wunderground v.1.15,2013-05-28 12:59:00,
2013-05-28 08:00:00,65.4,63.9,29.57,SE,139,8.0,8.0,95,0.00,,,0.25,345,Wunderground v.1.15,2013-05-28 13:00:00,
2013-05-28 08:01:00,65.4,63.9,29.57,SE,140,7.0,9.0,95,0.00,,,0.25,345,Wunderground v.1.15,2013-05-28 13:01:00,
2013-05-28 08:06:00,65.7,64.5,29.57,SSE,165,6.0,9.0,96,0.00,,,0.25,355,Wunderground v.1.15,2013-05-28 13:06:00,
2013-05-28 08:07:00,65.6,64.4,29.57,SE,140,5.0,9.0,96,0.00,,,0.25,355,Wunderground v.1.15,2013-05-28 13:07:00,
2013-05-28 08:08:00,65.7,64.5,29.57,SE,144,9.0,9.0,96,0.00,,,0.25,355,Wunderground v.1.15,2013-05-28 13:08:00,
2013-05-28 08:12:00,65.8,64.6,29.58,SSE,153,7.0,7.0,96,0.00,,,0.25,374,Wunderground v.1.15,2013-05-28 13:12:00,
2013-05-28 08:13:00,65.9,64.4,29.58,South,170,4.0,7.0,95,0.00,,,0.25,374,Wunderground v.1.15,2013-05-28 13:13:00,
2013-05-28 08:15:00,66.1,64.6,29.58,South,175,4.0,9.0,95,0.00,,,0.25,399,Wunderground v.1.15,2013-05-28 13:15:00,
2013-05-28 08:17:00,66.2,64.7,29.58,SSE,160,5.0,9.0,95,0.00,,,0.25,229,Wunderground v.1.15,2013-05-28 13:17:00,
2013-05-28 08:18:00,66.2,64.7,29.58,SSE,160,4.0,9.0,95,0.00,,,0.25,229,Wunderground v.1.15,2013-05-28 13:18:00,
2013-05-28 08:19:00,66.3,64.8,29.58,SE,136,5.0,9.0,95,0.00,,,0.25,424,Wunderground v.1.15,2013-05-28 13:19:00,
2013-05-28 08:21:00,66.4,64.9,29.58,SSE,168,4.0,6.0,95,0.00,,,0.25,424,Wunderground v.1.15,2013-05-28 13:21:00,
2013-05-28 08:22:00,66.5,65.0,29.58,South,173,4.0,6.0,95,0.00,,,0.25,424,Wunderground v.1.15,2013-05-28 13:22:00,
2013-05-28 08:23:00,66.7,65.2,29.59,SSE,165,4.0,6.0,95,0.00,,,0.25,424,Wunderground v.1.15,2013-05-28 13:23:00,
2013-05-28 08:24:00,66.8,65.3,29.59,SSE,157,6.0,6.0,95,0.00,,,0.25,571,Wunderground v.1.15,2013-05-28 13:24:00,
2013-05-28 08:25:00,67.2,65.7,29.59,SSW,192,8.0,8.0,95,0.00,,,0.25,478,Wunderground v.1.15,2013-05-28 13:25:00,
2013-05-28 08:27:00,67.1,65.3,29.59,South,190,7.0,9.0,94,0.00,,,0.25,111,Wunderground v.1.15,2013-05-28 13:27:00,
2013-05-28 08:29:00,66.9,64.8,29.59,South,187,5.0,9.0,93,0.00,,,0.25,137,Wunderground v.1.15,2013-05-28 13:29:00,
2013-05-28 08:30:00,66.8,64.7,29.59,SSE,163,4.0,5.0,93,0.00,,,0.25,137,Wunderground v.1.15,2013-05-28 13:30:00,
2013-05-28 08:31:00,67.0,65.2,29.59,SSE,165,4.0,6.0,94,0.00,,,0.25,606,Wunderground v.1.15,2013-05-28 13:31:00,
2013-05-28 08:33:00,67.2,65.4,29.59,South,178,7.0,8.0,94,0.00,,,0.25,606,Wunderground v.1.15,2013-05-28 13:33:00,
2013-05-28 08:35:00,67.1,65.0,29.59,SSE,167,3.0,9.0,93,0.00,,,0.25,606,Wunderground v.1.15,2013-05-28 13:35:00,
2013-05-28 08:37:00,67.0,64.9,29.59,South,179,5.0,9.0,93,0.00,,,0.25,301,Wunderground v.1.15,2013-05-28 13:37:00,
2013-05-28 08:39:00,67.2,65.1,29.59,SSW,199,8.0,9.0,93,0.00,,,0.25,169,Wunderground v.1.15,2013-05-28 13:39:00,
2013-05-28 08:40:00,67.1,65.0,29.59,South,186,5.0,6.0,93,0.00,,,0.25,533,Wunderground v.1.15,2013-05-28 13:40:00,
2013-05-28 08:42:00,67.5,65.7,29.59,South,180,6.0,6.0,94,0.00,,,0.25,468,Wunderground v.1.15,2013-05-28 13:42:00,
2013-05-28 08:44:00,67.6,65.2,29.59,South,189,7.0,8.0,92,0.00,,,0.25,468,Wunderground v.1.15,2013-05-28 13:44:00,
2013-05-28 08:45:00,67.5,65.1,29.59,SSW,196,7.0,8.0,92,0.00,,,0.25,142,Wunderground v.1.15,2013-05-28 13:45:00,
2013-05-28 08:46:00,67.5,65.1,29.59,SSW,207,7.0,8.0,92,0.00,,,0.25,127,Wunderground v.1.15,2013-05-28 13:46:00,
2013-05-28 08:47:00,67.5,65.4,29.59,SSW,195,7.0,8.0,93,0.00,,,0.25,629,Wunderground v.1.15,2013-05-28 13:47:00,
2013-05-28 08:49:00,67.6,65.2,29.59,SSW,200,7.0,8.0,92,0.00,,,0.25,656,Wunderground v.1.15,2013-05-28 13:49:00,
2013-05-28 08:50:00,67.7,65.3,29.60,SW,214,3.0,9.0,92,0.00,,,0.25,176,Wunderground v.1.15,2013-05-28 13:50:00,
2013-05-28 08:51:00,67.7,65.3,29.60,SSW,195,7.0,9.0,92,0.00,,,0.25,176,Wunderground v.1.15,2013-05-28 13:51:00,
2013-05-28 08:53:00,67.6,64.9,29.59,SSW,196,6.0,9.0,91,0.00,,,0.25,185,Wunderground v.1.15,2013-05-28 13:53:00,
2013-05-28 08:54:00,67.6,64.9,29.59,SSW,205,6.0,9.0,91,0.00,,,0.25,596,Wunderground v.1.15,2013-05-28 13:54:00,
2013-05-28 08:56:00,67.9,65.5,29.59,South,188,8.0,9.0,92,0.00,,,0.25,654,Wunderground v.1.15,2013-05-28 13:56:00,
2013-05-28 08:57:00,68.1,65.7,29.59,SSW,202,5.0,9.0,92,0.00,,,0.25,654,Wunderground v.1.15,2013-05-28 13:57:00,
2013-05-28 08:59:00,68.2,65.5,29.59,SW,225,4.0,9.0,91,0.00,,,0.25,654,Wunderground v.1.15,2013-05-28 13:59:00,
2013-05-28 09:00:00,68.2,65.8,29.59,SW,228,6.0,6.0,92,0.00,,,0.25,654,Wunderground v.1.15,2013-05-28 14:00:00,
2013-05-28 09:01:00,68.2,65.8,29.59,SW,223,5.0,8.0,92,0.00,,,0.25,654,Wunderground v.1.15,2013-05-28 14:01:00,
2013-05-28 09:04:00,68.2,65.5,29.59,SW,229,6.0,9.0,91,0.00,,,0.25,283,Wunderground v.1.15,2013-05-28 14:04:00,
2013-05-28 09:05:00,68.3,65.9,29.59,SSW,211,7.0,9.0,92,0.00,,,0.25,283,Wunderground v.1.15,2013-05-28 14:05:00,
2013-05-28 09:06:00,68.4,66.0,29.59,South,188,5.0,9.0,92,0.00,,,0.25,283,Wunderground v.1.15,2013-05-28 14:06:00,
2013-05-28 09:08:00,68.6,66.2,29.59,SSW,194,3.0,9.0,92,0.00,,,0.25,793,Wunderground v.1.15,2013-05-28 14:08:00,
2013-05-28 09:10:00,68.5,65.8,29.59,SW,219,4.0,7.0,91,0.00,,,0.25,274,Wunderground v.1.15,2013-05-28 14:10:00,
2013-05-28 09:11:00,68.6,65.9,29.59,SW,221,5.0,7.0,91,0.00,,,0.25,274,Wunderground v.1.15,2013-05-28 14:11:00,
2013-05-28 09:12:00,68.5,65.4,29.59,SSW,200,6.0,7.0,90,0.00,,,0.25,290,Wunderground v.1.15,2013-05-28 14:12:00,
2013-05-28 09:13:00,68.4,65.4,29.59,SSW,213,4.0,7.0,90,0.00,,,0.25,290,Wunderground v.1.15,2013-05-28 14:13:00,
2013-05-28 09:15:00,68.4,66.0,29.59,SW,218,5.0,7.0,92,0.00,,,0.25,427,Wunderground v.1.15,2013-05-28 14:15:00,
2013-05-28 09:17:00,68.7,66.3,29.60,WSW,246,7.0,7.0,92,0.00,,,0.25,427,Wunderground v.1.15,2013-05-28 14:17:00,
2013-05-28 09:18:00,68.8,66.1,29.60,WSW,238,5.0,7.0,91,0.00,,,0.25,427,Wunderground v.1.15,2013-05-28 14:18:00,
2013-05-28 09:19:00,68.9,66.5,29.59,WSW,242,5.0,7.0,92,0.00,,,0.25,427,Wunderground v.1.15,2013-05-28 14:19:00,
2013-05-28 09:20:00,69.0,66.3,29.60,WSW,246,5.0,5.0,91,0.00,,,0.25,427,Wunderground v.1.15,2013-05-28 14:20:00,
2013-05-28 09:22:00,68.7,65.6,29.59,WSW,243,3.0,7.0,90,0.00,,,0.25,274,Wunderground v.1.15,2013-05-28 14:22:00,
2013-05-28 09:23:00,68.9,66.2,29.60,WSW,246,4.0,7.0,91,0.00,,,0.25,810,Wunderground v.1.15,2013-05-28 14:23:00,
2013-05-28 09:25:00,69.0,65.9,29.60,WSW,250,5.0,7.0,90,0.00,,,0.25,373,Wunderground v.1.15,2013-05-28 14:25:00,
2013-05-28 09:26:00,68.9,65.8,29.60,WSW,250,5.0,7.0,90,0.00,,,0.25,374,Wunderground v.1.15,2013-05-28 14:26:00,
2013-05-28 09:28:00,68.9,65.8,29.60,SW,234,4.0,7.0,90,0.00,,,0.25,388,Wunderground v.1.15,2013-05-28 14:28:00,
2013-05-28 09:29:00,69.0,66.3,29.59,West,261,5.0,7.0,91,0.00,,,0.25,411,Wunderground v.1.15,2013-05-28 14:29:00,
2013-05-28 09:31:00,69.1,66.0,29.59,West,265,8.0,8.0,90,0.00,,,0.25,262,Wunderground v.1.15,2013-05-28 14:31:00,
2013-05-28 09:33:00,69.2,66.1,29.59,WSW,240,5.0,8.0,90,0.00,,,0.25,318,Wunderground v.1.15,2013-05-28 14:33:00,
2013-05-28 09:34:00,69.2,66.1,29.59,West,263,5.0,8.0,90,0.00,,,0.25,318,Wunderground v.1.15,2013-05-28 14:34:00,
2013-05-28 09:37:00,69.2,65.8,29.60,West,269,7.0,9.0,89,0.00,,,0.25,318,Wunderground v.1.15,2013-05-28 14:37:00,
2013-05-28 09:38:00,69.1,65.7,29.60,West,269,6.0,9.0,89,0.00,,,0.25,336,Wunderground v.1.15,2013-05-28 14:38:00,
2013-05-28 09:41:00,69.2,65.8,29.60,WSW,255,7.0,7.0,89,0.00,,,0.25,462,Wunderground v.1.15,2013-05-28 14:41:00,
2013-05-28 09:43:00,69.4,66.7,29.59,West,263,9.0,9.0,91,0.00,,,0.25,462,Wunderground v.1.15,2013-05-28 14:43:00,
2013-05-28 09:48:00,69.2,65.5,29.59,WNW,290,8.0,10.0,88,0.00,,,0.25,323,Wunderground v.1.15,2013-05-28 14:48:00,
2013-05-28 09:49:00,69.3,65.9,29.59,WNW,302,7.0,10.0,89,0.00,,,0.25,323,Wunderground v.1.15,2013-05-28 14:49:00,
2013-05-28 09:53:00,69.3,65.6,29.59,West,276,7.0,8.0,88,0.00,,,0.25,227,Wunderground v.1.15,2013-05-28 14:53:00,
2013-05-28 09:54:00,69.3,65.3,29.59,WNW,296,5.0,8.0,87,0.00,,,0.25,255,Wunderground v.1.15,2013-05-28 14:54:00,
2013-05-28 09:55:00,69.2,65.5,29.59,WNW,288,7.0,8.0,88,0.00,,,0.25,283,Wunderground v.1.15,2013-05-28 14:55:00,
2013-05-28 09:58:00,69.3,65.6,29.59,West,277,8.0,8.0,88,0.00,,,0.25,283,Wunderground v.1.15,2013-05-28 14:58:00,
2013-05-28 10:00:00,69.3,65.3,29.59,WNW,294,6.0,7.0,87,0.00,,,0.25,283,Wunderground v.1.15,2013-05-28 15:00:00,
2013-05-28 10:01:00,69.5,65.8,29.59,West,277,7.0,7.0,88,0.00,,,0.25,283,Wunderground v.1.15,2013-05-28 15:01:00,
2013-05-28 10:04:00,70.1,66.4,29.59,West,272,7.0,9.0,88,0.00,,,0.25,283,Wunderground v.1.15,2013-05-28 15:04:00,
2013-05-28 10:05:00,70.1,66.4,29.59,West,264,7.0,9.0,88,0.00,,,0.25,283,Wunderground v.1.15,2013-05-28 15:05:00,
2013-05-28 10:06:00,70.4,66.3,29.59,West,275,8.0,9.0,87,0.00,,,0.25,283,Wunderground v.1.15,2013-05-28 15:06:00,
2013-05-28 10:10:00,70.4,66.3,29.59,WNW,285,9.0,9.0,87,0.00,,,0.25,438,Wunderground v.1.15,2013-05-28 15:10:00,
2013-05-28 10:11:00,70.4,66.7,29.59,WNW,289,12.0,12.0,88,0.00,,,0.25,223,Wunderground v.1.15,2013-05-28 15:11:00,
2013-05-28 10:12:00,70.3,66.6,29.59,WNW,288,11.0,12.0,88,0.00,,,0.25,230,Wunderground v.1.15,2013-05-28 15:12:00,
2013-05-28 10:15:00,69.9,66.5,29.59,WNW,298,14.0,14.0,89,0.00,,,0.25,311,Wunderground v.1.15,2013-05-28 15:15:00,
2013-05-28 10:16:00,69.9,66.5,29.59,WNW,286,11.0,14.0,89,0.00,,,0.25,311,Wunderground v.1.15,2013-05-28 15:16:00,
2013-05-28 10:17:00,69.7,66.3,29.59,WNW,288,10.0,14.0,89,0.00,,,0.25,316,Wunderground v.1.15,2013-05-28 15:17:00,
2013-05-28 10:21:00,69.2,66.1,29.59,WNW,297,12.0,13.0,90,0.00,,,0.25,306,Wunderground v.1.15,2013-05-28 15:21:00,
2013-05-28 10:23:00,69.0,65.9,29.59,NW,317,10.0,13.0,90,0.00,,,0.25,308,Wunderground v.1.15,2013-05-28 15:23:00,
2013-05-28 10:24:00,68.9,66.2,29.59,NW,309,10.0,13.0,91,0.00,,,0.25,308,Wunderground v.1.15,2013-05-28 15:24:00,
2013-05-28 10:25:00,68.8,66.1,29.59,WNW,303,10.0,13.0,91,0.00,,,0.25,323,Wunderground v.1.15,2013-05-28 15:25:00,
2013-05-28 10:26:00,68.8,66.1,29.59,NW,314,8.0,13.0,91,0.00,,,0.25,320,Wunderground v.1.15,2013-05-28 15:26:00,
2013-05-28 10:28:00,68.7,66.0,29.59,NW,305,10.0,13.0,91,0.00,,,0.25,318,Wunderground v.1.15,2013-05-28 15:28:00,
2013-05-28 10:29:00,68.6,65.9,29.59,WNW,283,8.0,13.0,91,0.00,,,0.25,320,Wunderground v.1.15,2013-05-28 15:29:00,
2013-05-28 10:30:00,68.6,66.2,29.59,WNW,286,10.0,10.0,92,0.00,,,0.25,343,Wunderground v.1.15,2013-05-28 15:30:00,
2013-05-28 10:32:00,68.5,65.8,29.59,WNW,286,10.0,11.0,91,0.00,,,0.25,357,Wunderground v.1.15,2013-05-28 15:32:00,
2013-05-28 10:35:00,68.4,65.7,29.59,WNW,293,7.0,11.0,91,0.00,,,0.25,353,Wunderground v.1.15,2013-05-28 15:35:00,
2013-05-28 10:36:00,68.5,65.8,29.59,NW,311,9.0,11.0,91,0.00,,,0.25,353,Wunderground v.1.15,2013-05-28 15:36:00,
2013-05-28 10:37:00,68.6,66.2,29.59,WNW,292,6.0,11.0,92,0.00,,,0.25,396,Wunderground v.1.15,2013-05-28 15:37:00,
2013-05-28 10:38:00,68.7,66.0,29.59,WNW,282,6.0,11.0,91,0.00,,,0.25,599,Wunderground v.1.15,2013-05-28 15:38:00,
2013-05-28 10:41:00,69.0,66.3,29.59,WNW,287,10.0,10.0,91,0.00,,,0.25,599,Wunderground v.1.15,2013-05-28 15:41:00,
2013-05-28 10:42:00,69.1,66.4,29.59,WNW,284,8.0,10.0,91,0.00,,,0.25,295,Wunderground v.1.15,2013-05-28 15:42:00,
2013-05-28 10:43:00,69.0,65.6,29.59,West,278,8.0,10.0,89,0.00,,,0.25,330,Wunderground v.1.15,2013-05-28 15:43:00,
2013-05-28 10:44:00,69.0,65.9,29.59,WNW,300,6.0,10.0,90,0.00,,,0.25,330,Wunderground v.1.15,2013-05-28 15:44:00,
2013-05-28 10:46:00,69.1,66.0,29.59,WNW,287,9.0,10.0,90,0.00,,,0.25,297,Wunderground v.1.15,2013-05-28 15:46:00,
2013-05-28 10:47:00,69.0,65.6,29.59,West,280,8.0,10.0,89,0.00,,,0.25,315,Wunderground v.1.15,2013-05-28 15:47:00,
2013-05-28 10:48:00,69.0,65.6,29.59,West,268,8.0,10.0,89,0.00,,,0.25,315,Wunderground v.1.15,2013-05-28 15:48:00,
2013-05-28 10:50:00,69.0,65.6,29.59,West,277,7.0,10.0,89,0.00,,,0.25,315,Wunderground v.1.15,2013-05-28 15:50:00,
2013-05-28 10:51:00,69.3,66.2,29.59,West,264,9.0,10.0,90,0.00,,,0.25,315,Wunderground v.1.15,2013-05-28 15:51:00,
2013-05-28 10:52:00,69.4,66.3,29.59,West,281,8.0,10.0,90,0.00,,,0.25,315,Wunderground v.1.15,2013-05-28 15:52:00,
2013-05-28 10:54:00,69.5,65.8,29.59,West,276,8.0,10.0,88,0.00,,,0.25,434,Wunderground v.1.15,2013-05-28 15:54:00,
2013-05-28 10:56:00,69.6,65.9,29.59,WNW,283,6.0,10.0,88,0.00,,,0.25,582,Wunderground v.1.15,2013-05-28 15:56:00,
2013-05-28 10:57:00,69.7,66.3,29.60,WSW,254,8.0,10.0,89,0.00,,,0.25,605,Wunderground v.1.15,2013-05-28 15:57:00,
2013-05-28 11:00:00,70.0,66.0,29.60,West,277,6.0,7.0,87,0.00,,,0.25,555,Wunderground v.1.15,2013-05-28 16:00:00,
2013-05-28 11:02:00,70.3,66.6,29.60,WSW,243,8.0,9.0,88,0.00,,,0.25,517,Wunderground v.1.15,2013-05-28 16:02:00,
2013-05-28 11:03:00,70.4,66.7,29.60,West,265,6.0,9.0,88,0.00,,,0.25,580,Wunderground v.1.15,2013-05-28 16:03:00,
2013-05-28 11:05:00,70.3,66.2,29.60,West,271,9.0,9.0,87,0.00,,,0.25,580,Wunderground v.1.15,2013-05-28 16:05:00,
2013-05-28 11:07:00,70.3,65.6,29.60,West,268,8.0,10.0,85,0.00,,,0.25,580,Wunderground v.1.15,2013-05-28 16:07:00,
2013-05-28 11:08:00,70.3,66.2,29.60,West,263,5.0,10.0,87,0.00,,,0.25,580,Wunderground v.1.15,2013-05-28 16:08:00,
2013-05-28 11:11:00,70.6,66.5,29.60,West,278,8.0,11.0,87,0.00,,,0.25,817,Wunderground v.1.15,2013-05-28 16:11:00,
2013-05-28 11:12:00,70.6,66.5,29.60,West,270,8.0,11.0,87,0.00,,,0.25,817,Wunderground v.1.15,2013-05-28 16:12:00,
2013-05-28 11:13:00,70.8,66.7,29.60,West,260,11.0,11.0,87,0.00,,,0.25,817,Wunderground v.1.15,2013-05-28 16:13:00,
2013-05-28 11:17:00,70.7,66.6,29.60,WSW,257,11.0,13.0,87,0.00,,,0.25,891,Wunderground v.1.15,2013-05-28 16:17:00,
2013-05-28 11:18:00,70.7,66.6,29.60,West,261,8.0,13.0,87,0.00,,,0.25,323,Wunderground v.1.15,2013-05-28 16:18:00,
2013-05-28 11:19:00,70.5,66.1,29.60,West,280,11.0,13.0,86,0.00,,,0.25,325,Wunderground v.1.15,2013-05-28 16:19:00,
2013-05-28 11:22:00,70.5,66.4,29.60,West,266,9.0,12.0,87,0.00,,,0.25,325,Wunderground v.1.15,2013-05-28 16:22:00,
2013-05-28 11:24:00,70.5,66.1,29.60,West,272,11.0,12.0,86,0.00,,,0.25,325,Wunderground v.1.15,2013-05-28 16:24:00,
2013-05-28 11:28:00,70.8,66.1,29.60,West,261,8.0,12.0,85,0.00,,,0.25,1025,Wunderground v.1.15,2013-05-28 16:28:00,
2013-05-28 11:30:00,70.8,66.1,29.60,WSW,244,9.0,9.0,85,0.00,,,0.25,1025,Wunderground v.1.15,2013-05-28 16:30:00,
2013-05-28 11:34:00,71.1,65.7,29.60,WSW,258,8.0,10.0,83,0.00,,,0.25,443,Wunderground v.1.15,2013-05-28 16:34:00,
2013-05-28 11:35:00,70.8,65.7,29.60,West,267,9.0,11.0,84,0.00,,,0.25,401,Wunderground v.1.15,2013-05-28 16:35:00,
2013-05-28 11:36:00,70.6,65.5,29.60,West,267,6.0,11.0,84,0.00,,,0.25,401,Wunderground v.1.15,2013-05-28 16:36:00,
2013-05-28 11:38:00,70.6,66.2,29.60,WSW,254,9.0,11.0,86,0.00,,,0.25,722,Wunderground v.1.15,2013-05-28 16:38:00,
2013-05-28 11:40:00,70.7,66.0,29.60,West,273,10.0,10.0,85,0.00,,,0.25,710,Wunderground v.1.15,2013-05-28 16:40:00,
2013-05-28 11:42:00,70.8,65.7,29.60,West,264,9.0,10.0,84,0.00,,,0.25,710,Wunderground v.1.15,2013-05-28 16:42:00,
2013-05-28 11:43:00,70.8,65.7,29.60,West,273,6.0,11.0,84,0.00,,,0.25,701,Wunderground v.1.15,2013-05-28 16:43:00,
2013-05-28 11:44:00,70.8,65.4,29.61,West,268,5.0,11.0,83,0.00,,,0.25,701,Wunderground v.1.15,2013-05-28 16:44:00,
2013-05-28 11:46:00,70.7,66.0,29.61,West,259,9.0,11.0,85,0.00,,,0.25,701,Wunderground v.1.15,2013-05-28 16:46:00,
2013-05-28 11:49:00,70.8,65.4,29.61,WSW,252,8.0,11.0,83,0.00,,,0.25,947,Wunderground v.1.15,2013-05-28 16:49:00,
2013-05-28 11:50:00,70.7,65.6,29.61,WSW,250,6.0,7.0,84,0.00,,,0.25,441,Wunderground v.1.15,2013-05-28 16:50:00,
2013-05-28 11:51:00,70.6,65.2,29.61,WSW,250,3.0,7.0,83,0.00,,,0.25,441,Wunderground v.1.15,2013-05-28 16:51:00,
2013-05-28 11:53:00,70.7,66.3,29.61,West,263,7.0,7.0,86,0.00,,,0.25,585,Wunderground v.1.15,2013-05-28 16:53:00,
2013-05-28 11:55:00,71.1,66.7,29.61,WSW,244,6.0,10.0,86,0.00,,,0.25,585,Wunderground v.1.15,2013-05-28 16:55:00,
2013-05-28 11:56:00,71.1,66.4,29.61,WSW,248,6.0,10.0,85,0.00,,,0.25,585,Wunderground v.1.15,2013-05-28 16:56:00,
2013-05-28 11:57:00,71.1,66.4,29.61,WSW,252,6.0,10.0,85,0.00,,,0.25,531,Wunderground v.1.15,2013-05-28 16:57:00,
2013-05-28 12:00:00,70.8,66.1,29.61,WSW,251,9.0,9.0,85,0.00,,,0.25,519,Wunderground v.1.15,2013-05-28 17:00:00,
2013-05-28 12:01:00,70.8,66.1,29.61,WSW,248,5.0,9.0,85,0.00,,,0.25,517,Wunderground v.1.15,2013-05-28 17:01:00,
2013-05-28 12:02:00,70.8,65.7,29.61,WSW,256,6.0,9.0,84,0.00,,,0.25,517,Wunderground v.1.15,2013-05-28 17:02:00,
2013-05-28 12:03:00,70.7,65.6,29.61,WSW,257,7.0,9.0,84,0.00,,,0.25,517,Wunderground v.1.15,2013-05-28 17:03:00,
2013-05-28 12:06:00,71.0,66.3,29.61,SW,229,6.0,9.0,85,0.00,,,0.25,1065,Wunderground v.1.15,2013-05-28 17:06:00,
2013-05-28 12:07:00,71.4,67.0,29.61,West,260,7.0,9.0,86,0.00,,,0.25,1049,Wunderground v.1.15,2013-05-28 17:07:00,
2013-05-28 12:08:00,71.5,66.8,29.61,WSW,257,5.0,10.0,85,0.00,,,0.25,1081,Wunderground v.1.15,2013-05-28 17:08:00,
2013-05-28 12:12:00,71.8,66.7,29.61,SW,219,7.0,8.0,84,0.00,,,0.25,1155,Wunderground v.1.15,2013-05-28 17:12:00,
2013-05-28 12:13:00,71.8,66.7,29.61,WSW,250,9.0,9.0,84,0.00,,,0.25,1155,Wunderground v.1.15,2013-05-28 17:13:00,
2013-05-28 12:14:00,71.8,66.7,29.61,West,261,7.0,9.0,84,0.00,,,0.25,1155,Wunderground v.1.15,2013-05-28 17:14:00,
2013-05-28 12:15:00,71.9,67.1,29.61,WSW,246,8.0,9.0,85,0.00,,,0.25,1213,Wunderground v.1.15,2013-05-28 17:15:00,
2013-05-28 12:18:00,71.9,66.5,29.61,WSW,248,6.0,9.0,83,0.00,,,0.25,1213,Wunderground v.1.15,2013-05-28 17:18:00,
2013-05-28 12:19:00,72.3,66.8,29.62,WSW,237,10.0,10.0,83,0.00,,,0.25,1213,Wunderground v.1.15,2013-05-28 17:19:00,
2013-05-28 12:20:00,72.4,68.0,29.61,SW,232,10.0,10.0,86,0.00,,,0.25,1213,Wunderground v.1.15,2013-05-28 17:20:00,
2013-05-28 12:21:00,72.1,66.6,29.62,SW,234,2.0,10.0,83,0.00,,,0.25,427,Wunderground v.1.15,2013-05-28 17:21:00,
2013-05-28 12:22:00,72.0,65.8,29.62,WSW,240,6.0,10.0,81,0.00,,,0.25,427,Wunderground v.1.15,2013-05-28 17:22:00,
2013-05-28 12:24:00,71.5,66.4,29.62,WSW,252,6.0,10.0,84,0.00,,,0.25,360,Wunderground v.1.15,2013-05-28 17:24:00,
2013-05-28 12:25:00,71.5,66.4,29.62,WSW,258,6.0,10.0,84,0.00,,,0.25,360,Wunderground v.1.15,2013-05-28 17:25:00,
2013-05-28 12:26:00,71.5,66.4,29.62,WSW,245,7.0,10.0,84,0.00,,,0.25,325,Wunderground v.1.15,2013-05-28 17:26:00,
2013-05-28 12:27:00,71.5,66.4,29.62,WSW,248,8.0,10.0,84,0.00,,,0.25,378,Wunderground v.1.15,2013-05-28 17:27:00,
2013-05-28 12:29:00,71.5,66.4,29.62,West,269,6.0,10.0,84,0.00,,,0.25,378,Wunderground v.1.15,2013-05-28 17:29:00,
2013-05-28 12:31:00,71.6,66.5,29.62,West,266,4.0,9.0,84,0.00,,,0.25,348,Wunderground v.1.15,2013-05-28 17:31:00,
2013-05-28 12:33:00,71.8,66.7,29.62,West,269,7.0,9.0,84,0.00,,,0.25,352,Wunderground v.1.15,2013-05-28 17:33:00,
2013-05-28 12:34:00,71.8,66.7,29.62,WNW,298,6.0,9.0,84,0.00,,,0.25,352,Wunderground v.1.15,2013-05-28 17:34:00,
2013-05-28 12:35:00,71.7,66.6,29.62,WNW,294,5.0,9.0,84,0.00,,,0.25,318,Wunderground v.1.15,2013-05-28 17:35:00,
2013-05-28 12:37:00,71.5,66.4,29.62,West,277,5.0,9.0,84,0.00,,,0.25,267,Wunderground v.1.15,2013-05-28 17:37:00,
2013-05-28 12:39:00,71.4,67.0,29.62,West,266,5.0,9.0,86,0.00,,,0.25,332,Wunderground v.1.15,2013-05-28 17:39:00,
2013-05-28 12:40:00,71.5,66.8,29.62,West,266,5.0,6.0,85,0.00,,,0.25,1053,Wunderground v.1.15,2013-05-28 17:40:00,
2013-05-28 12:42:00,71.7,66.6,29.62,WSW,248,8.0,8.0,84,0.00,,,0.25,1081,Wunderground v.1.15,2013-05-28 17:42:00,
2013-05-28 12:44:00,72.0,66.9,29.62,WNW,300,7.0,8.0,84,0.00,,,0.25,325,Wunderground v.1.15,2013-05-28 17:44:00,
2013-05-28 12:45:00,72.0,66.9,29.62,WNW,286,5.0,8.0,84,0.00,,,0.25,325,Wunderground v.1.15,2013-05-28 17:45:00,
2013-05-28 12:47:00,72.0,66.9,29.62,West,277,7.0,8.0,84,0.00,,,0.25,327,Wunderground v.1.15,2013-05-28 17:47:00,
2013-05-28 12:50:00,72.2,66.4,29.62,WNW,286,7.0,7.0,82,0.00,,,0.25,1046,Wunderground v.1.15,2013-05-28 17:50:00,
2013-05-28 12:52:00,72.5,66.7,29.62,WNW,292,4.0,7.0,82,0.00,,,0.25,1072,Wunderground v.1.15,2013-05-28 17:52:00,
2013-05-28 12:53:00,72.6,68.5,29.62,West,281,3.0,7.0,87,0.00,,,0.25,1093,Wunderground v.1.15,2013-05-28 17:53:00,
2013-05-28 12:54:00,73.0,67.5,29.62,West,267,5.0,7.0,83,0.00,,,0.25,1093,Wunderground v.1.15,2013-05-28 17:54:00,
2013-05-28 12:55:00,73.1,68.3,29.62,West,261,7.0,9.0,85,0.00,,,0.25,1093,Wunderground v.1.15,2013-05-28 17:55:00,
2013-05-28 12:58:00,73.6,68.1,29.62,West,261,5.0,9.0,83,0.00,,,0.25,1139,Wunderground v.1.15,2013-05-28 17:58:00,
2013-05-28 12:59:00,73.9,69.1,29.62,West,281,9.0,9.0,85,0.00,,,0.25,1139,Wunderground v.1.15,2013-05-28 17:59:00,
2013-05-28 13:00:00,73.9,68.1,29.62,WNW,291,6.0,6.0,82,0.00,,,0.25,1139,Wunderground v.1.15,2013-05-28 18:00:00,
2013-05-28 13:01:00,73.9,67.0,29.62,West,280,7.0,7.0,79,0.00,,,0.25,1139,Wunderground v.1.15,2013-05-28 18:01:00,
2013-05-28 13:03:00,73.9,67.7,29.62,WNW,294,7.0,8.0,81,0.00,,,0.25,1150,Wunderground v.1.15,2013-05-28 18:03:00,
2013-05-28 13:05:00,74.0,67.4,29.62,West,271,7.0,8.0,80,0.00,,,0.25,1232,Wunderground v.1.15,2013-05-28 18:05:00,
2013-05-28 13:06:00,74.2,68.7,29.62,West,271,11.0,12.0,83,0.00,,,0.25,1232,Wunderground v.1.15,2013-05-28 18:06:00,
2013-05-28 13:08:00,74.6,68.4,29.62,WSW,250,8.0,12.0,81,0.00,,,0.25,1121,Wunderground v.1.15,2013-05-28 18:08:00,
2013-05-28 13:10:00,74.7,68.5,29.62,WSW,250,4.0,7.0,81,0.00,,,0.25,1099,Wunderground v.1.15,2013-05-28 18:10:00,
2013-05-28 13:13:00,74.8,67.8,29.62,WNW,290,11.0,11.0,79,0.00,,,0.25,1121,Wunderground v.1.15,2013-05-28 18:13:00,
2013-05-28 13:16:00,75.0,67.7,29.61,NW,305,9.0,14.0,78,0.00,,,0.25,1081,Wunderground v.1.15,2013-05-28 18:16:00,
2013-05-28 13:18:00,74.9,67.6,29.62,West,279,7.0,14.0,78,0.00,,,0.25,1109,Wunderground v.1.15,2013-05-28 18:18:00,
2013-05-28 13:19:00,74.9,66.8,29.61,WNW,299,5.0,14.0,76,0.00,,,0.25,1109,Wunderground v.1.15,2013-05-28 18:19:00,
2013-05-28 13:21:00,75.1,68.5,29.62,West,276,9.0,9.0,80,0.00,,,0.25,1109,Wunderground v.1.15,2013-05-28 18:21:00,
2013-05-28 13:24:00,74.9,66.8,29.61,NW,311,9.0,10.0,76,0.00,,,0.25,394,Wunderground v.1.15,2013-05-28 18:24:00,
2013-05-28 13:25:00,74.8,66.3,29.61,WNW,295,8.0,11.0,75,0.00,,,0.25,457,Wunderground v.1.15,2013-05-28 18:25:00,
2013-05-28 13:27:00,74.6,66.5,29.61,NW,306,6.0,11.0,76,0.00,,,0.25,413,Wunderground v.1.15,2013-05-28 18:27:00,
2013-05-28 13:28:00,74.6,66.9,29.61,NW,304,7.0,11.0,77,0.00,,,0.25,413,Wunderground v.1.15,2013-05-28 18:28:00,
2013-05-28 13:30:00,74.3,65.5,29.62,WNW,294,7.0,8.0,74,0.00,,,0.25,364,Wunderground v.1.15,2013-05-28 18:30:00,
2013-05-28 13:32:00,74.4,67.5,29.62,West,261,8.0,9.0,79,0.00,,,0.25,1146,Wunderground v.1.15,2013-05-28 18:32:00,
2013-05-28 13:33:00,74.5,67.2,29.62,West,267,6.0,9.0,78,0.00,,,0.25,1146,Wunderground v.1.15,2013-05-28 18:33:00,
2013-05-28 13:35:00,74.8,66.7,29.62,West,273,10.0,10.0,76,0.00,,,0.25,1092,Wunderground v.1.15,2013-05-28 18:35:00,
2013-05-28 13:38:00,74.7,66.2,29.62,WNW,291,2.0,10.0,75,0.00,,,0.25,1086,Wunderground v.1.15,2013-05-28 18:38:00,
2013-05-28 13:39:00,74.7,67.0,29.62,WNW,286,8.0,10.0,77,0.00,,,0.25,1086,Wunderground v.1.15,2013-05-28 18:39:00,
2013-05-28 13:41:00,74.7,65.5,29.62,WNW,290,10.0,10.0,73,0.00,,,0.25,1086,Wunderground v.1.15,2013-05-28 18:41:00,
2013-05-28 13:44:00,74.8,65.6,29.62,WNW,292,6.0,10.0,73,0.00,,,0.25,311,Wunderground v.1.15,2013-05-28 18:44:00,
2013-05-28 13:45:00,74.7,66.6,29.62,WNW,296,12.0,12.0,76,0.00,,,0.25,388,Wunderground v.1.15,2013-05-28 18:45:00,
2013-05-28 13:46:00,74.8,67.1,29.62,WNW,289,12.0,12.0,77,0.00,,,0.25,1113,Wunderground v.1.15,2013-05-28 18:46:00,
2013-05-28 13:47:00,75.0,66.5,29.62,WNW,297,9.0,12.0,75,0.00,,,0.25,1106,Wunderground v.1.15,2013-05-28 18:47:00,
2013-05-28 13:50:00,75.4,66.9,29.62,West,281,6.0,9.0,75,0.00,,,0.25,1063,Wunderground v.1.15,2013-05-28 18:50:00,
2013-05-28 13:51:00,75.4,66.9,29.62,West,281,9.0,9.0,75,0.00,,,0.25,1071,Wunderground v.1.15,2013-05-28 18:51:00,
2013-05-28 13:52:00,75.5,67.0,29.62,WNW,302,6.0,10.0,75,0.00,,,0.25,1048,Wunderground v.1.15,2013-05-28 18:52:00,
2013-05-28 13:53:00,75.6,67.1,29.62,NW,311,8.0,10.0,75,0.00,,,0.25,1048,Wunderground v.1.15,2013-05-28 18:53:00,
2013-05-28 13:55:00,75.6,65.5,29.62,WNW,291,5.0,10.0,71,0.00,,,0.25,1048,Wunderground v.1.15,2013-05-28 18:55:00,
2013-05-28 13:56:00,75.6,66.3,29.62,NW,306,9.0,10.0,73,0.00,,,0.25,1048,Wunderground v.1.15,2013-05-28 18:56:00,
2013-05-28 13:58:00,75.6,65.9,29.62,NW,324,7.0,10.0,72,0.00,,,0.25,1034,Wunderground v.1.15,2013-05-28 18:58:00,
2013-05-28 13:59:00,75.6,65.9,29.62,NW,323,0.0,10.0,72,0.00,,,0.25,1034,Wunderground v.1.15,2013-05-28 18:59:00,
2013-05-28 14:00:00,75.5,65.8,29.62,NW,313,6.0,7.0,72,0.00,,,0.25,875,Wunderground v.1.15,2013-05-28 19:00:00,
2013-05-28 14:01:00,75.5,66.6,29.62,West,281,8.0,8.0,74,0.00,,,0.25,875,Wunderground v.1.15,2013-05-28 19:01:00,
2013-05-28 14:02:00,75.5,66.6,29.62,West,280,6.0,8.0,74,0.00,,,0.25,921,Wunderground v.1.15,2013-05-28 19:02:00,
2013-05-28 14:03:00,75.6,67.5,29.62,West,275,6.0,10.0,76,0.00,,,0.25,921,Wunderground v.1.15,2013-05-28 19:03:00,
2013-05-28 14:05:00,75.4,67.3,29.62,WNW,283,1.0,10.0,76,0.00,,,0.25,921,Wunderground v.1.15,2013-05-28 19:05:00,
2013-05-28 14:07:00,75.0,65.4,29.63,NW,309,3.0,10.0,72,0.00,,,0.25,921,Wunderground v.1.15,2013-05-28 19:07:00,
2013-05-28 14:09:00,75.1,66.2,29.63,West,279,7.0,11.0,74,0.00,,,0.25,1007,Wunderground v.1.15,2013-05-28 19:09:00,
2013-05-28 14:10:00,75.2,66.7,29.63,WNW,290,9.0,10.0,75,0.00,,,0.25,1007,Wunderground v.1.15,2013-05-28 19:10:00,
2013-05-28 14:11:00,75.3,65.6,29.63,NW,304,8.0,10.0,72,0.00,,,0.25,1007,Wunderground v.1.15,2013-05-28 19:11:00,
2013-05-28 14:14:00,75.3,66.0,29.63,WNW,302,6.0,10.0,73,0.00,,,0.25,274,Wunderground v.1.15,2013-05-28 19:14:00,
2013-05-28 14:15:00,75.2,65.9,29.63,NW,310,4.0,10.0,73,0.00,,,0.25,278,Wunderground v.1.15,2013-05-28 19:15:00,
2013-05-28 14:17:00,74.9,64.9,29.63,WNW,298,6.0,10.0,71,0.00,,,0.25,299,Wunderground v.1.15,2013-05-28 19:17:00,
2013-05-28 14:19:00,74.4,64.4,29.64,WNW,298,2.0,10.0,71,0.00,,,0.25,304,Wunderground v.1.15,2013-05-28 19:19:00,
2013-05-28 14:21:00,74.4,66.0,29.64,NW,310,1.0,5.0,75,0.00,,,0.25,874,Wunderground v.1.15,2013-05-28 19:21:00,
2013-05-28 14:22:00,74.6,65.8,29.64,NW,311,0.0,5.0,74,0.00,,,0.25,874,Wunderground v.1.15,2013-05-28 19:22:00,
2013-05-28 14:23:00,74.8,66.7,29.63,NW,315,4.0,5.0,76,0.00,,,0.25,874,Wunderground v.1.15,2013-05-28 19:23:00,
2013-05-28 14:26:00,75.4,66.9,29.64,WNW,285,4.0,5.0,75,0.00,,,0.25,1062,Wunderground v.1.15,2013-05-28 19:26:00,
2013-05-28 14:27:00,75.7,66.8,29.64,West,275,5.0,5.0,74,0.00,,,0.25,1046,Wunderground v.1.15,2013-05-28 19:27:00,
2013-05-28 14:29:00,75.8,65.3,29.64,WNW,282,5.0,5.0,70,0.00,,,0.25,995,Wunderground v.1.15,2013-05-28 19:29:00,
2013-05-28 14:32:00,76.0,66.7,29.64,NW,318,4.0,7.0,73,0.00,,,0.25,949,Wunderground v.1.15,2013-05-28 19:32:00,
2013-05-28 14:34:00,76.4,66.3,29.64,West,276,7.0,7.0,71,0.00,,,0.25,1004,Wunderground v.1.15,2013-05-28 19:34:00,
2013-05-28 14:35:00,76.4,66.3,29.64,West,280,4.0,7.0,71,0.00,,,0.25,1018,Wunderground v.1.15,2013-05-28 19:35:00,
2013-05-28 14:37:00,76.4,64.2,29.64,West,265,0.0,7.0,66,0.00,,,0.25,1013,Wunderground v.1.15,2013-05-28 19:37:00,
2013-05-28 14:38:00,76.3,65.0,29.64,West,265,1.0,7.0,68,0.00,,,0.25,990,Wunderground v.1.15,2013-05-28 19:38:00,
2013-05-28 14:41:00,76.3,66.6,29.64,WSW,256,5.0,5.0,72,0.00,,,0.25,803,Wunderground v.1.15,2013-05-28 19:41:00,
2013-05-28 14:42:00,76.6,68.5,29.64,West,269,4.0,5.0,76,0.00,,,0.25,1025,Wunderground v.1.15,2013-05-28 19:42:00,
2013-05-28 14:44:00,76.7,67.4,29.64,WSW,254,10.0,10.0,73,0.00,,,0.25,1028,Wunderground v.1.15,2013-05-28 19:44:00,
2013-05-28 14:46:00,76.7,64.9,29.64,WNW,294,0.0,10.0,67,0.00,,,0.25,1009,Wunderground v.1.15,2013-05-28 19:46:00,
2013-05-28 14:47:00,76.6,67.3,29.63,NNW,336,0.0,10.0,73,0.00,,,0.25,1009,Wunderground v.1.15,2013-05-28 19:47:00,
2013-05-28 14:48:00,76.6,66.9,29.64,WSW,246,6.0,10.0,72,0.00,,,0.25,1009,Wunderground v.1.15,2013-05-28 19:48:00,
2013-05-28 14:51:00,76.3,66.2,29.64,West,281,3.0,3.0,71,0.00,,,0.25,1009,Wunderground v.1.15,2013-05-28 19:51:00,
2013-05-28 14:52:00,76.4,66.3,29.64,West,265,4.0,5.0,71,0.00,,,0.25,1009,Wunderground v.1.15,2013-05-28 19:52:00,
2013-05-28 14:53:00,76.4,65.9,29.64,West,265,4.0,5.0,70,0.00,,,0.25,1009,Wunderground v.1.15,2013-05-28 19:53:00,
2013-05-28 14:57:00,76.5,65.6,29.64,NW,306,5.0,8.0,69,0.00,,,0.25,587,Wunderground v.1.15,2013-05-28 19:57:00,
2013-05-28 14:59:00,76.4,65.5,29.64,WNW,299,4.0,8.0,69,0.00,,,0.25,297,Wunderground v.1.15,2013-05-28 19:59:00,
2013-05-28 15:00:00,76.3,65.8,29.64,WSW,247,4.0,6.0,70,0.00,,,0.25,315,Wunderground v.1.15,2013-05-28 20:00:00,
2013-05-28 15:03:00,76.4,67.5,29.64,WSW,245,5.0,6.0,74,0.00,,,0.25,1020,Wunderground v.1.15,2013-05-28 20:03:00,
2013-05-28 15:05:00,76.6,66.1,29.64,SW,229,5.0,7.0,70,0.00,,,0.25,946,Wunderground v.1.15,2013-05-28 20:05:00,
2013-05-28 15:07:00,76.7,66.6,29.63,WSW,238,5.0,7.0,71,0.00,,,0.25,946,Wunderground v.1.15,2013-05-28 20:07:00,
2013-05-28 15:08:00,76.7,66.6,29.64,West,261,3.0,7.0,71,0.00,,,0.25,946,Wunderground v.1.15,2013-05-28 20:08:00,
2013-05-28 15:11:00,77.1,66.1,29.64,WSW,252,7.0,7.0,69,0.00,,,0.25,944,Wunderground v.1.15,2013-05-28 20:11:00,
2013-05-28 15:12:00,77.2,66.7,29.64,WSW,250,7.0,7.0,70,0.00,,,0.25,953,Wunderground v.1.15,2013-05-28 20:12:00,
2013-05-28 15:13:00,77.2,66.7,29.64,WSW,250,3.0,7.0,70,0.00,,,0.25,986,Wunderground v.1.15,2013-05-28 20:13:00,
2013-05-28 15:15:00,77.3,67.2,29.64,WSW,250,2.0,7.0,71,0.00,,,0.25,1030,Wunderground v.1.15,2013-05-28 20:15:00,
2013-05-28 15:16:00,77.3,65.9,29.64,West,279,3.0,7.0,68,0.00,,,0.25,1044,Wunderground v.1.15,2013-05-28 20:16:00,
2013-05-28 15:17:00,77.3,66.7,29.64,SW,233,7.0,8.0,70,0.00,,,0.25,1053,Wunderground v.1.15,2013-05-28 20:17:00,
2013-05-28 15:18:00,77.2,66.2,29.64,SW,232,2.0,8.0,69,0.00,,,0.25,1063,Wunderground v.1.15,2013-05-28 20:18:00,
2013-05-28 15:20:00,77.3,66.7,29.64,WSW,250,3.0,5.0,70,0.00,,,0.25,1042,Wunderground v.1.15,2013-05-28 20:20:00,
2013-05-28 15:22:00,77.3,66.7,29.64,West,281,5.0,6.0,70,0.00,,,0.25,993,Wunderground v.1.15,2013-05-28 20:22:00,
2013-05-28 15:24:00,77.5,68.2,29.64,WNW,298,6.0,6.0,73,0.00,,,0.25,993,Wunderground v.1.15,2013-05-28 20:24:00,
2013-05-28 15:25:00,77.7,68.4,29.64,WSW,253,5.0,8.0,73,0.00,,,0.25,1023,Wunderground v.1.15,2013-05-28 20:25:00,
2013-05-28 15:29:00,78.1,68.3,29.64,WSW,249,7.0,10.0,72,0.00,,,0.25,1032,Wunderground v.1.15,2013-05-28 20:29:00,
2013-05-28 15:31:00,77.8,66.8,29.63,WSW,238,4.0,7.0,69,0.00,,,0.25,1032,Wunderground v.1.15,2013-05-28 20:31:00,
2013-05-28 15:33:00,77.8,67.6,29.63,West,274,5.0,7.0,71,0.00,,,0.25,925,Wunderground v.1.15,2013-05-28 20:33:00,
2013-05-28 15:34:00,78.0,67.4,29.63,WNW,284,0.0,7.0,70,0.00,,,0.25,921,Wunderground v.1.15,2013-05-28 20:34:00,
2013-05-28 15:35:00,78.1,67.5,29.63,WNW,284,1.0,7.0,70,0.00,,,0.25,981,Wunderground v.1.15,2013-05-28 20:35:00,
2013-05-28 15:36:00,78.0,67.0,29.63,WNW,284,2.0,7.0,69,0.00,,,0.25,991,Wunderground v.1.15,2013-05-28 20:36:00,
2013-05-28 15:37:00,78.0,67.0,29.63,WNW,286,3.0,7.0,69,0.00,,,0.25,998,Wunderground v.1.15,2013-05-28 20:37:00,
2013-05-28 15:38:00,77.8,65.5,29.64,WNW,282,0.0,7.0,66,0.00,,,0.25,998,Wunderground v.1.15,2013-05-28 20:38:00,
2013-05-28 15:40:00,77.7,65.4,29.64,WSW,240,1.0,4.0,66,0.00,,,0.25,911,Wunderground v.1.15,2013-05-28 20:40:00,
2013-05-28 15:41:00,77.6,65.3,29.64,WSW,257,4.0,4.0,66,0.00,,,0.25,911,Wunderground v.1.15,2013-05-28 20:41:00,
2013-05-28 15:42:00,77.8,68.4,29.64,WSW,247,6.0,7.0,73,0.00,,,0.25,1005,Wunderground v.1.15,2013-05-28 20:42:00,
2013-05-28 15:43:00,77.7,66.3,29.64,WSW,254,4.0,7.0,68,0.00,,,0.25,1005,Wunderground v.1.15,2013-05-28 20:43:00,
2013-05-28 15:45:00,77.3,65.9,29.63,WNW,301,2.0,7.0,68,0.00,,,0.25,1005,Wunderground v.1.15,2013-05-28 20:45:00,
2013-05-28 15:47:00,77.2,66.2,29.64,West,277,2.0,7.0,69,0.00,,,0.25,998,Wunderground v.1.15,2013-05-28 20:47:00,
2013-05-28 15:48:00,77.3,66.7,29.64,West,270,0.0,7.0,70,0.00,,,0.25,983,Wunderground v.1.15,2013-05-28 20:48:00,
2013-05-28 15:50:00,77.5,67.4,29.63,WNW,292,1.0,3.0,71,0.00,,,0.25,965,Wunderground v.1.15,2013-05-28 20:50:00,
2013-05-28 15:51:00,77.5,65.7,29.63,WNW,292,0.0,3.0,67,0.00,,,0.25,965,Wunderground v.1.15,2013-05-28 20:51:00,
2013-05-28 15:53:00,77.6,66.6,29.63,WNW,296,2.0,3.0,69,0.00,,,0.25,865,Wunderground v.1.15,2013-05-28 20:53:00,
2013-05-28 15:54:00,77.6,66.2,29.63,WNW,292,2.0,3.0,68,0.00,,,0.25,313,Wunderground v.1.15,2013-05-28 20:54:00,
2013-05-28 15:55:00,77.5,66.1,29.63,WSW,250,3.0,4.0,68,0.00,,,0.25,269,Wunderground v.1.15,2013-05-28 20:55:00,
2013-05-28 15:56:00,77.5,67.4,29.63,SW,229,3.0,4.0,71,0.00,,,0.25,269,Wunderground v.1.15,2013-05-28 20:56:00,
2013-05-28 15:58:00,77.4,67.3,29.63,SW,221,6.0,7.0,71,0.00,,,0.25,257,Wunderground v.1.15,2013-05-28 20:58:00,
2013-05-28 15:59:00,77.3,66.7,29.63,SW,234,4.0,8.0,70,0.00,,,0.25,285,Wunderground v.1.15,2013-05-28 20:59:00,
2013-05-28 16:00:00,77.2,66.7,29.64,SW,219,5.0,6.0,70,0.00,,,0.25,285,Wunderground v.1.15,2013-05-28 21:00:00,
2013-05-28 16:02:00,77.2,65.8,29.64,SSW,200,5.0,6.0,68,0.00,,,0.25,285,Wunderground v.1.15,2013-05-28 21:02:00,
2013-05-28 16:04:00,77.2,66.2,29.64,SW,227,4.0,7.0,69,0.00,,,0.25,302,Wunderground v.1.15,2013-05-28 21:04:00,
2013-05-28 16:05:00,77.4,66.8,29.64,WSW,241,7.0,7.0,70,0.00,,,0.25,942,Wunderground v.1.15,2013-05-28 21:05:00,
2013-05-28 16:06:00,77.5,65.7,29.64,WSW,252,4.0,7.0,67,0.00,,,0.25,942,Wunderground v.1.15,2013-05-28 21:06:00,
2013-05-28 16:07:00,77.6,65.8,29.64,WSW,246,2.0,7.0,67,0.00,,,0.25,942,Wunderground v.1.15,2013-05-28 21:07:00,
2013-05-28 16:08:00,78.1,67.1,29.64,SSW,209,4.0,7.0,69,0.00,,,0.25,895,Wunderground v.1.15,2013-05-28 21:08:00,
2013-05-28 16:09:00,78.2,67.2,29.64,SSW,206,7.0,7.0,69,0.00,,,0.25,895,Wunderground v.1.15,2013-05-28 21:09:00,
2013-05-28 16:10:00,78.4,67.0,29.64,West,272,7.0,7.0,68,0.00,,,0.25,895,Wunderground v.1.15,2013-05-28 21:10:00,
2013-05-28 16:12:00,78.7,67.2,29.63,West,275,7.0,8.0,68,0.00,,,0.25,895,Wunderground v.1.15,2013-05-28 21:12:00,
2013-05-28 16:15:00,78.8,66.5,29.63,West,273,8.0,9.0,66,0.00,,,0.25,737,Wunderground v.1.15,2013-05-28 21:15:00,
2013-05-28 16:16:00,78.8,65.6,29.63,West,281,5.0,9.0,64,0.00,,,0.25,737,Wunderground v.1.15,2013-05-28 21:16:00,
2013-05-28 16:18:00,78.5,66.6,29.63,WNW,286,6.0,9.0,67,0.00,,,0.25,645,Wunderground v.1.15,2013-05-28 21:18:00,
2013-05-28 16:20:00,78.5,67.1,29.63,West,259,5.0,7.0,68,0.00,,,0.25,619,Wunderground v.1.15,2013-05-28 21:20:00,
2013-05-28 16:21:00,78.4,67.4,29.63,West,259,6.0,8.0,69,0.00,,,0.25,543,Wunderground v.1.15,2013-05-28 21:21:00,
2013-05-28 16:24:00,78.0,65.7,29.63,West,273,0.0,8.0,66,0.00,,,0.25,564,Wunderground v.1.15,2013-05-28 21:24:00,
2013-05-28 16:25:00,77.9,64.3,29.64,WNW,287,5.0,8.0,63,0.00,,,0.25,647,Wunderground v.1.15,2013-05-28 21:25:00,
2013-05-28 16:27:00,77.9,65.6,29.64,West,274,4.0,8.0,66,0.00,,,0.25,687,Wunderground v.1.15,2013-05-28 21:27:00,
2013-05-28 16:29:00,77.9,65.6,29.63,SW,227,2.0,8.0,66,0.00,,,0.25,670,Wunderground v.1.15,2013-05-28 21:29:00,
2013-05-28 16:31:00,78.0,66.6,29.63,West,268,4.0,5.0,68,0.00,,,0.25,733,Wunderground v.1.15,2013-05-28 21:31:00,
2013-05-28 16:32:00,78.5,67.5,29.64,WNW,286,8.0,10.0,69,0.00,,,0.25,758,Wunderground v.1.15,2013-05-28 21:32:00,
2013-05-28 16:33:00,78.5,67.1,29.64,WNW,284,6.0,10.0,68,0.00,,,0.25,758,Wunderground v.1.15,2013-05-28 21:33:00,
2013-05-28 16:36:00,78.8,66.9,29.64,SW,236,3.0,10.0,67,0.00,,,0.25,712,Wunderground v.1.15,2013-05-28 21:36:00,
2013-05-28 16:37:00,78.8,67.3,29.63,WSW,244,5.0,10.0,68,0.00,,,0.25,396,Wunderground v.1.15,2013-05-28 21:37:00,
2013-05-28 16:38:00,78.7,66.4,29.63,WSW,243,5.0,10.0,66,0.00,,,0.25,396,Wunderground v.1.15,2013-05-28 21:38:00,
2013-05-28 16:42:00,78.7,68.1,29.63,West,275,6.0,10.0,70,0.00,,,0.25,872,Wunderground v.1.15,2013-05-28 21:42:00,
2013-05-28 16:44:00,78.7,66.8,29.63,WNW,285,4.0,10.0,67,0.00,,,0.25,749,Wunderground v.1.15,2013-05-28 21:44:00,
2013-05-28 16:46:00,78.7,65.9,29.62,North,355,2.0,10.0,65,0.00,,,0.25,691,Wunderground v.1.15,2013-05-28 21:46:00,
2013-05-28 16:47:00,78.7,65.9,29.62,North,360,0.0,10.0,65,0.00,,,0.25,766,Wunderground v.1.15,2013-05-28 21:47:00,
2013-05-28 16:49:00,78.8,65.6,29.62,NNW,345,3.0,10.0,64,0.00,,,0.25,789,Wunderground v.1.15,2013-05-28 21:49:00,
2013-05-28 16:51:00,79.0,66.2,29.62,NW,318,2.0,4.0,65,0.00,,,0.25,789,Wunderground v.1.15,2013-05-28 21:51:00,
2013-05-28 16:52:00,79.1,65.4,29.62,NW,312,5.0,7.0,63,0.00,,,0.25,578,Wunderground v.1.15,2013-05-28 21:52:00,
2013-05-28 16:56:00,79.1,64.5,29.62,NW,310,2.0,7.0,61,0.00,,,0.25,700,Wunderground v.1.15,2013-05-28 21:56:00,
2013-05-28 16:58:00,79.1,65.4,29.62,West,274,6.0,9.0,63,0.00,,,0.25,652,Wunderground v.1.15,2013-05-28 21:58:00,
2013-05-28 16:59:00,79.1,66.3,29.62,WNW,296,7.0,9.0,65,0.00,,,0.25,668,Wunderground v.1.15,2013-05-28 21:59:00,
2013-05-28 17:01:00,79.1,67.6,29.61,West,275,7.0,8.0,68,0.00,,,0.25,656,Wunderground v.1.15,2013-05-28 22:01:00,
2013-05-28 17:03:00,79.0,65.3,29.61,West,266,3.0,8.0,63,0.00,,,0.25,621,Wunderground v.1.15,2013-05-28 22:03:00,
2013-05-28 17:04:00,78.9,65.2,29.61,West,267,4.0,8.0,63,0.00,,,0.25,577,Wunderground v.1.15,2013-05-28 22:04:00,
2013-05-28 17:05:00,78.8,65.6,29.61,NW,311,6.0,8.0,64,0.00,,,0.25,577,Wunderground v.1.15,2013-05-28 22:05:00,
2013-05-28 17:07:00,78.6,64.9,29.60,WNW,298,4.0,8.0,63,0.00,,,0.25,418,Wunderground v.1.15,2013-05-28 22:07:00,
2013-05-28 17:08:00,78.5,64.4,29.60,WNW,298,1.0,8.0,62,0.00,,,0.25,533,Wunderground v.1.15,2013-05-28 22:08:00,
2013-05-28 17:09:00,78.4,65.2,29.60,WNW,298,2.0,8.0,64,0.00,,,0.25,570,Wunderground v.1.15,2013-05-28 22:09:00,
2013-05-28 17:12:00,78.6,67.6,29.60,NNW,329,3.0,5.0,69,0.00,,,0.25,570,Wunderground v.1.15,2013-05-28 22:12:00,
2013-05-28 17:14:00,78.6,66.7,29.61,North,360,2.0,5.0,67,0.00,,,0.25,425,Wunderground v.1.15,2013-05-28 22:14:00,
2013-05-28 17:16:00,78.6,66.3,29.61,NNE,15,3.0,5.0,66,0.00,,,0.25,436,Wunderground v.1.15,2013-05-28 22:16:00,
2013-05-28 17:18:00,78.7,65.9,29.61,NNW,333,3.0,5.0,65,0.00,,,0.25,436,Wunderground v.1.15,2013-05-28 22:18:00,
2013-05-28 17:19:00,78.6,65.8,29.61,NW,311,4.0,6.0,65,0.00,,,0.25,436,Wunderground v.1.15,2013-05-28 22:19:00,
2013-05-28 17:22:00,78.2,65.5,29.62,NNW,344,1.0,3.0,65,0.00,,,0.25,575,Wunderground v.1.15,2013-05-28 22:22:00,
2013-05-28 17:23:00,78.4,65.7,29.62,NNW,344,1.0,3.0,65,0.00,,,0.25,578,Wunderground v.1.15,2013-05-28 22:23:00,
2013-05-28 17:24:00,78.5,65.3,29.62,NNW,344,0.0,3.0,64,0.00,,,0.25,578,Wunderground v.1.15,2013-05-28 22:24:00,
2013-05-28 17:28:00,79.0,65.3,29.61,NW,326,2.0,4.0,63,0.00,,,0.25,490,Wunderground v.1.15,2013-05-28 22:28:00,
2013-05-28 17:30:00,78.9,66.6,29.61,NW,325,1.0,2.0,66,0.00,,,0.25,480,Wunderground v.1.15,2013-05-28 22:30:00,
2013-05-28 17:32:00,78.6,65.8,29.61,NW,319,0.0,4.0,65,0.00,,,0.25,448,Wunderground v.1.15,2013-05-28 22:32:00,
2013-05-28 17:33:00,78.7,65.9,29.62,NNW,333,3.0,4.0,65,0.00,,,0.25,538,Wunderground v.1.15,2013-05-28 22:33:00,
2013-05-28 17:35:00,78.8,65.6,29.62,NNW,333,0.0,4.0,64,0.00,,,0.25,506,Wunderground v.1.15,2013-05-28 22:35:00,
2013-05-28 17:37:00,78.8,66.0,29.62,NW,307,6.0,6.0,65,0.00,,,0.25,459,Wunderground v.1.15,2013-05-28 22:37:00,
2013-05-28 17:38:00,78.8,66.9,29.62,NW,317,3.0,6.0,67,0.00,,,0.25,436,Wunderground v.1.15,2013-05-28 22:38:00,
2013-05-28 17:40:00,78.7,67.2,29.62,WNW,299,5.0,6.0,68,0.00,,,0.25,436,Wunderground v.1.15,2013-05-28 22:40:00,
2013-05-28 17:41:00,78.7,65.5,29.62,WNW,299,8.0,8.0,64,0.00,,,0.25,436,Wunderground v.1.15,2013-05-28 22:41:00,
2013-05-28 17:44:00,78.2,65.5,29.63,WNW,296,1.0,8.0,65,0.00,,,0.25,149,Wunderground v.1.15,2013-05-28 22:44:00,
2013-05-28 17:45:00,78.0,64.8,29.63,WNW,296,0.0,8.0,64,0.00,,,0.25,151,Wunderground v.1.15,2013-05-28 22:45:00,
2013-05-28 17:46:00,77.7,64.5,29.63,WNW,296,3.0,8.0,64,0.00,,,0.25,155,Wunderground v.1.15,2013-05-28 22:46:00,
2013-05-28 17:47:00,77.6,65.8,29.63,WNW,296,2.0,8.0,67,0.00,,,0.25,160,Wunderground v.1.15,2013-05-28 22:47:00,
2013-05-28 17:50:00,77.3,64.2,29.62,WNW,296,0.0,3.0,64,0.00,,,0.25,153,Wunderground v.1.15,2013-05-28 22:50:00,
2013-05-28 17:52:00,77.3,64.6,29.62,WNW,296,1.0,3.0,65,0.00,,,0.25,144,Wunderground v.1.15,2013-05-28 22:52:00,
2013-05-28 17:53:00,77.2,64.5,29.62,NNW,327,1.0,3.0,65,0.00,,,0.25,130,Wunderground v.1.15,2013-05-28 22:53:00,
2013-05-28 17:54:00,77.2,65.4,29.62,NNW,338,1.0,3.0,67,0.00,,,0.25,134,Wunderground v.1.15,2013-05-28 22:54:00,
2013-05-28 17:57:00,77.1,65.3,29.63,NNW,338,0.0,3.0,67,0.00,,,0.25,111,Wunderground v.1.15,2013-05-28 22:57:00,
2013-05-28 17:58:00,77.0,65.2,29.64,NNW,338,0.0,3.0,67,0.00,,,0.25,100,Wunderground v.1.15,2013-05-28 22:58:00,
2013-05-28 17:59:00,76.9,64.7,29.64,NNW,338,0.0,3.0,66,0.00,,,0.25,95,Wunderground v.1.15,2013-05-28 22:59:00,
2013-05-28 18:03:00,76.8,65.9,29.63,NNW,340,0.0,2.0,69,0.00,,,0.25,77,Wunderground v.1.15,2013-05-28 23:03:00,
2013-05-28 18:04:00,76.6,64.8,29.62,NNW,340,0.0,2.0,67,0.00,,,0.25,74,Wunderground v.1.15,2013-05-28 23:04:00,
2013-05-28 18:05:00,76.6,64.8,29.62,NNW,340,0.0,2.0,67,0.00,,,0.25,70,Wunderground v.1.15,2013-05-28 23:05:00,
2013-05-28 18:08:00,76.4,63.8,29.63,NNW,340,0.0,2.0,65,0.00,,,0.25,63,Wunderground v.1.15,2013-05-28 23:08:00,
2013-05-28 18:09:00,76.3,64.1,29.63,NNW,340,0.0,2.0,66,0.00,,,0.25,60,Wunderground v.1.15,2013-05-28 23:09:00,
2013-05-28 18:10:00,76.3,64.1,29.63,NNW,340,0.0,2.0,66,0.00,,,0.25,58,Wunderground v.1.15,2013-05-28 23:10:00,
2013-05-28 18:13:00,76.1,64.8,29.63,NNW,340,0.0,0.0,68,0.00,,,0.25,53,Wunderground v.1.15,2013-05-28 23:13:00,
2013-05-28 18:14:00,76.0,65.1,29.63,NNW,340,0.0,0.0,69,0.00,,,0.25,51,Wunderground v.1.15,2013-05-28 23:14:00,
2013-05-28 18:15:00,76.0,65.1,29.63,NNW,340,0.0,0.0,69,0.00,,,0.25,47,Wunderground v.1.15,2013-05-28 23:15:00,
2013-05-28 18:16:00,76.0,65.1,29.63,NNW,340,0.0,0.0,69,0.00,,,0.25,47,Wunderground v.1.15,2013-05-28 23:16:00,
2013-05-28 18:19:00,76.0,65.5,29.64,NNW,340,0.0,2.0,70,0.00,,,0.25,40,Wunderground v.1.15,2013-05-28 23:19:00,
2013-05-28 18:21:00,75.5,65.8,29.64,NNW,340,0.0,0.0,72,0.00,,,0.25,39,Wunderground v.1.15,2013-05-28 23:21:00,
2013-05-28 18:22:00,75.5,65.8,29.64,NNW,340,0.0,0.0,72,0.00,,,0.25,39,Wunderground v.1.15,2013-05-28 23:22:00,
2013-05-28 18:23:00,75.1,66.2,29.63,NNW,340,0.0,0.0,74,0.00,,,0.25,39,Wunderground v.1.15,2013-05-28 23:23:00,
2013-05-28 18:25:00,75.1,64.6,29.63,NNW,340,0.0,0.0,70,0.00,,,0.25,40,Wunderground v.1.15,2013-05-28 23:25:00,
2013-05-28 18:27:00,75.2,64.3,29.63,NNW,340,0.0,0.0,69,0.00,,,0.25,39,Wunderground v.1.15,2013-05-28 23:27:00,
2013-05-28 18:28:00,75.3,64.4,29.63,NNW,340,0.0,0.0,69,0.00,,,0.25,39,Wunderground v.1.15,2013-05-28 23:28:00,
2013-05-28 18:29:00,75.3,64.8,29.63,NNW,340,0.0,0.0,70,0.00,,,0.25,46,Wunderground v.1.15,2013-05-28 23:29:00,
2013-05-28 18:32:00,75.1,64.6,29.62,NNW,340,0.0,0.0,70,0.00,,,0.25,51,Wunderground v.1.15,2013-05-28 23:32:00,
2013-05-28 18:33:00,75.1,64.6,29.62,NNW,340,1.0,1.0,70,0.00,,,0.25,51,Wunderground v.1.15,2013-05-28 23:33:00,
2013-05-28 18:34:00,75.1,64.6,29.62,NNW,340,0.0,1.0,70,0.00,,,0.25,53,Wunderground v.1.15,2013-05-28 23:34:00,
2013-05-28 18:36:00,75.1,64.6,29.62,NNW,340,0.0,1.0,70,0.00,,,0.25,51,Wunderground v.1.15,2013-05-28 23:36:00,
2013-05-28 18:39:00,74.4,66.3,29.62,NNW,340,0.0,1.0,76,0.00,,,0.25,46,Wunderground v.1.15,2013-05-28 23:39:00,
2013-05-28 18:41:00,73.7,65.7,29.61,NNW,340,0.0,0.0,76,0.00,,,0.25,44,Wunderground v.1.15,2013-05-28 23:41:00,
2013-05-28 18:45:00,73.7,64.9,29.61,NNW,340,0.0,0.0,74,0.00,,,0.25,39,Wunderground v.1.15,2013-05-28 23:45:00,
2013-05-28 18:47:00,73.8,64.6,29.61,NNW,340,0.0,0.0,73,0.00,,,0.25,37,Wunderground v.1.15,2013-05-28 23:47:00,
2013-05-28 18:50:00,74.0,64.8,29.61,NNW,340,0.0,0.0,73,0.00,,,0.25,35,Wunderground v.1.15,2013-05-28 23:50:00,
2013-05-28 18:52:00,73.9,64.7,29.60,NNW,340,0.0,0.0,73,0.00,,,0.25,33,Wunderground v.1.15,2013-05-28 23:52:00,
2013-05-28 18:53:00,73.9,65.1,29.60,NNW,340,0.0,0.0,74,0.00,,,0.25,33,Wunderground v.1.15,2013-05-28 23:53:00,
2013-05-28 18:56:00,73.5,65.1,29.59,NNW,340,0.0,0.0,75,0.00,,,0.25,33,Wunderground v.1.15,2013-05-28 23:56:00,
2013-05-28 18:59:00,73.7,65.3,29.59,NNW,340,0.0,0.0,75,0.00,,,0.25,39,Wunderground v.1.15,2013-05-28 23:59:00,
2013-05-28 19:01:00,73.7,64.9,29.58,NNW,340,0.0,0.0,74,0.00,,,0.25,39,Wunderground v.1.15,2013-05-29 00:01:00,
2013-05-28 19:03:00,73.7,65.7,29.58,NNW,343,0.0,4.0,76,0.00,,,0.25,42,Wunderground v.1.15,2013-05-29 00:03:00,
2013-05-28 19:05:00,73.6,64.8,29.58,NNW,343,0.0,4.0,74,0.00,,,0.25,44,Wunderground v.1.15,2013-05-29 00:05:00,
2013-05-28 19:07:00,73.7,64.5,29.58,NNW,343,0.0,4.0,73,0.00,,,0.25,42,Wunderground v.1.15,2013-05-29 00:07:00,
2013-05-28 19:11:00,74.0,64.8,29.59,ENE,71,3.0,3.0,73,0.00,,,0.25,39,Wunderground v.1.15,2013-05-29 00:11:00,
2013-05-28 19:12:00,74.0,65.2,29.59,ENE,71,3.0,3.0,74,0.00,,,0.25,37,Wunderground v.1.15,2013-05-29 00:12:00,
2013-05-28 19:13:00,73.9,65.5,29.59,ENE,77,4.0,4.0,75,0.00,,,0.25,35,Wunderground v.1.15,2013-05-29 00:13:00,
2013-05-28 19:17:00,73.5,65.5,29.61,East,101,2.0,5.0,76,0.00,,,0.25,30,Wunderground v.1.15,2013-05-29 00:17:00,
2013-05-28 19:18:00,73.5,65.8,29.61,East,101,2.0,5.0,77,0.00,,,0.25,30,Wunderground v.1.15,2013-05-29 00:18:00,
2013-05-28 19:19:00,73.3,65.7,29.61,East,101,0.0,5.0,77,0.00,,,0.25,28,Wunderground v.1.15,2013-05-29 00:19:00,
2013-05-28 19:22:00,73.3,66.4,29.61,East,101,2.0,2.0,79,0.00,,,0.25,25,Wunderground v.1.15,2013-05-29 00:22:00,
2013-05-28 19:23:00,73.2,66.3,29.62,East,101,1.0,2.0,79,0.00,,,0.25,25,Wunderground v.1.15,2013-05-29 00:23:00,
2013-05-28 19:26:00,73.1,65.8,29.61,East,101,0.0,2.0,78,0.00,,,0.25,23,Wunderground v.1.15,2013-05-29 00:26:00,
2013-05-28 19:27:00,73.0,65.7,29.61,East,101,1.0,2.0,78,0.00,,,0.25,21,Wunderground v.1.15,2013-05-29 00:27:00,
2013-05-28 19:28:00,73.0,65.7,29.61,East,101,1.0,2.0,78,0.00,,,0.25,21,Wunderground v.1.15,2013-05-29 00:28:00,
2013-05-28 19:29:00,72.9,65.6,29.61,East,101,1.0,2.0,78,0.00,,,0.25,21,Wunderground v.1.15,2013-05-29 00:29:00,
2013-05-28 19:31:00,72.8,65.2,29.61,East,101,0.0,1.0,77,0.00,,,0.25,18,Wunderground v.1.15,2013-05-29 00:31:00,
2013-05-28 19:33:00,72.8,65.2,29.61,East,101,0.0,1.0,77,0.00,,,0.25,16,Wunderground v.1.15,2013-05-29 00:33:00,
2013-05-28 19:35:00,72.8,65.2,29.61,East,101,0.0,1.0,77,0.00,,,0.25,16,Wunderground v.1.15,2013-05-29 00:35:00,
2013-05-28 19:37:00,72.7,65.4,29.61,East,101,0.0,1.0,78,0.00,,,0.25,14,Wunderground v.1.15,2013-05-29 00:37:00,
2013-05-28 19:38:00,72.6,65.3,29.61,East,101,0.0,1.0,78,0.00,,,0.25,14,Wunderground v.1.15,2013-05-29 00:38:00,
2013-05-28 19:39:00,72.5,65.6,29.61,East,101,0.0,1.0,79,0.00,,,0.25,14,Wunderground v.1.15,2013-05-29 00:39:00,
2013-05-28 19:40:00,72.3,65.8,29.61,East,101,0.0,0.0,80,0.00,,,0.25,14,Wunderground v.1.15,2013-05-29 00:40:00,
2013-05-28 19:41:00,72.2,65.7,29.61,East,101,0.0,0.0,80,0.00,,,0.25,14,Wunderground v.1.15,2013-05-29 00:41:00,
2013-05-28 19:44:00,71.8,66.4,29.62,East,101,0.0,0.0,83,0.00,,,0.25,16,Wunderground v.1.15,2013-05-29 00:44:00,
2013-05-28 19:45:00,71.5,66.4,29.62,East,101,0.0,0.0,84,0.00,,,0.25,16,Wunderground v.1.15,2013-05-29 00:45:00,
2013-05-28 19:48:00,71.3,65.9,29.61,East,101,0.0,0.0,83,0.00,,,0.25,16,Wunderground v.1.15,2013-05-29 00:48:00,
2013-05-28 19:49:00,71.5,65.7,29.61,East,101,0.0,0.0,82,0.00,,,0.25,18,Wunderground v.1.15,2013-05-29 00:49:00,
2013-05-28 19:51:00,71.7,65.9,29.60,East,101,0.0,0.0,82,0.00,,,0.25,19,Wunderground v.1.15,2013-05-29 00:51:00,
2013-05-28 19:54:00,72.2,66.0,29.59,East,101,2.0,2.0,81,0.00,,,0.25,30,Wunderground v.1.15,2013-05-29 00:54:00,
2013-05-28 19:56:00,72.2,66.0,29.59,East,97,2.0,3.0,81,0.00,,,0.25,51,Wunderground v.1.15,2013-05-29 00:56:00,
2013-05-28 19:57:00,72.2,66.0,29.59,East,86,2.0,3.0,81,0.00,,,0.25,58,Wunderground v.1.15,2013-05-29 00:57:00,
2013-05-28 20:01:00,72.1,66.3,29.57,NE,42,2.0,2.0,82,0.00,,,0.25,56,Wunderground v.1.15,2013-05-29 01:01:00,
2013-05-28 20:02:00,72.2,66.0,29.57,NNE,28,1.0,3.0,81,0.00,,,0.25,56,Wunderground v.1.15,2013-05-29 01:02:00,
2013-05-28 20:03:00,72.2,66.0,29.57,NNE,26,1.0,3.0,81,0.00,,,0.25,54,Wunderground v.1.15,2013-05-29 01:03:00,
2013-05-28 20:06:00,72.8,65.9,29.58,NNE,32,2.0,3.0,79,0.00,,,0.25,51,Wunderground v.1.15,2013-05-29 01:06:00,
2013-05-28 20:07:00,72.9,66.0,29.58,NNE,32,0.0,3.0,79,0.00,,,0.25,47,Wunderground v.1.15,2013-05-29 01:07:00,
2013-05-28 20:08:00,72.9,66.0,29.58,NNE,32,2.0,3.0,79,0.00,,,0.25,46,Wunderground v.1.15,2013-05-29 01:08:00,
2013-05-28 20:11:00,73.1,65.8,29.59,NE,43,1.0,1.0,78,0.00,,,0.25,44,Wunderground v.1.15,2013-05-29 01:11:00,
2013-05-28 20:12:00,73.0,66.1,29.59,ENE,67,2.0,2.0,79,0.00,,,0.25,40,Wunderground v.1.15,2013-05-29 01:12:00,
2013-05-28 20:13:00,73.0,66.1,29.59,ENE,69,2.0,2.0,79,0.00,,,0.25,40,Wunderground v.1.15,2013-05-29 01:13:00,
2013-05-28 20:16:00,72.7,66.5,29.60,ENE,73,1.0,3.0,81,0.00,,,0.25,39,Wunderground v.1.15,2013-05-29 01:16:00,
2013-05-28 20:18:00,72.4,66.6,29.60,ENE,73,2.0,3.0,82,0.00,,,0.25,35,Wunderground v.1.15,2013-05-29 01:18:00,
2013-05-28 20:21:00,72.3,66.5,29.60,East,96,2.0,5.0,82,0.00,,,0.25,33,Wunderground v.1.15,2013-05-29 01:21:00,
2013-05-28 20:22:00,72.3,66.5,29.60,ESE,111,2.0,5.0,82,0.00,,,0.25,32,Wunderground v.1.15,2013-05-29 01:22:00,
2013-05-28 20:23:00,72.3,66.5,29.61,SE,130,5.0,6.0,82,0.00,,,0.25,32,Wunderground v.1.15,2013-05-29 01:23:00,
2013-05-28 20:24:00,72.3,66.5,29.61,SE,129,2.0,6.0,82,0.00,,,0.25,32,Wunderground v.1.15,2013-05-29 01:24:00,
2013-05-28 20:26:00,72.3,66.5,29.61,SE,129,2.0,6.0,82,0.00,,,0.25,32,Wunderground v.1.15,2013-05-29 01:26:00,
2013-05-28 20:28:00,72.3,66.5,29.60,SE,129,0.0,6.0,82,0.00,,,0.25,33,Wunderground v.1.15,2013-05-29 01:28:00,
2013-05-28 20:29:00,72.3,66.5,29.60,SE,129,1.0,6.0,82,0.00,,,0.25,35,Wunderground v.1.15,2013-05-29 01:29:00,
2013-05-28 20:31:00,72.3,66.1,29.60,ESE,112,0.0,2.0,81,0.00,,,0.25,35,Wunderground v.1.15,2013-05-29 01:31:00,
2013-05-28 20:33:00,72.2,66.0,29.60,East,86,2.0,3.0,81,0.00,,,0.25,33,Wunderground v.1.15,2013-05-29 01:33:00,
2013-05-28 20:34:00,72.2,66.0,29.60,East,86,1.0,3.0,81,0.00,,,0.25,30,Wunderground v.1.15,2013-05-29 01:34:00,
2013-05-28 20:35:00,72.2,66.4,29.61,East,101,3.0,3.0,82,0.00,,,0.25,30,Wunderground v.1.15,2013-05-29 01:35:00,
2013-05-28 20:38:00,72.2,66.4,29.61,ESE,115,2.0,4.0,82,0.00,,,0.25,19,Wunderground v.1.15,2013-05-29 01:38:00,
2013-05-28 20:39:00,72.2,66.4,29.61,ESE,114,4.0,4.0,82,0.00,,,0.25,16,Wunderground v.1.15,2013-05-29 01:39:00,
2013-05-28 20:40:00,72.2,66.4,29.61,ESE,109,3.0,3.0,82,0.00,,,0.25,14,Wunderground v.1.15,2013-05-29 01:40:00,
2013-05-28 20:42:00,72.2,66.4,29.61,ESE,109,2.0,3.0,82,0.00,,,0.25,11,Wunderground v.1.15,2013-05-29 01:42:00,
2013-05-28 20:43:00,72.2,66.7,29.62,ESE,109,2.0,3.0,83,0.00,,,0.25,0,Wunderground v.1.15,2013-05-29 01:43:00,
2013-05-28 20:45:00,72.2,66.7,29.62,ESE,109,2.0,3.0,83,0.00,,,0.25,0,Wunderground v.1.15,2013-05-29 01:45:00,
2013-05-28 20:46:00,72.1,66.6,29.62,ESE,109,1.0,3.0,83,0.00,,,0.25,0,Wunderground v.1.15,2013-05-29 01:46:00,
2013-05-28 20:48:00,72.0,66.6,29.62,ESE,109,0.0,3.0,83,0.00,,,0.25,0,Wunderground v.1.15,2013-05-29 01:48:00,
2013-05-28 20:49:00,71.9,66.8,29.63,ESE,109,3.0,3.0,84,0.00,,,0.25,0,Wunderground v.1.15,2013-05-29 01:49:00,
2013-05-28 20:51:00,71.9,66.8,29.63,ESE,118,1.0,3.0,84,0.00,,,0.25,0,Wunderground v.1.15,2013-05-29 01:51:00,
2013-05-28 20:52:00,71.8,66.7,29.63,ESE,118,2.0,3.0,84,0.00,,,0.25,0,Wunderground v.1.15,2013-05-29 01:52:00,
2013-05-28 20:53:00,71.8,66.7,29.63,ESE,118,0.0,3.0,84,0.00,,,0.25,0,Wunderground v.1.15,2013-05-29 01:53:00,
2013-05-28 20:55:00,71.7,66.9,29.63,ESE,113,2.0,3.0,85,0.00,,,0.25,0,Wunderground v.1.15,2013-05-29 01:55:00,
2013-05-28 20:56:00,71.6,66.5,29.63,ESE,104,1.0,3.0,84,0.00,,,0.25,0,Wunderground v.1.15,2013-05-29 01:56:00,
2013-05-28 20:57:00,71.5,66.4,29.63,ESE,103,2.0,3.0,84,0.00,,,0.25,0,Wunderground v.1.15,2013-05-29 01:57:00,
2013-05-28 20:58:00,71.5,66.4,29.63,East,96,1.0,5.0,84,0.00,,,0.25,0,Wunderground v.1.15,2013-05-29 01:58:00,
2013-05-28 20:59:00,71.4,66.3,29.62,East,96,1.0,5.0,84,0.00,,,0.25,0,Wunderground v.1.15,2013-05-29 01:59:00,
2013-05-28 21:01:00,71.3,66.6,29.63,East,96,1.0,2.0,85,0.00,,,0.25,0,Wunderground v.1.15,2013-05-29 02:01:00,
2013-05-28 21:03:00,71.1,66.4,29.63,SE,127,2.0,4.0,85,0.00,,,0.25,0,Wunderground v.1.15,2013-05-29 02:03:00,
2013-05-28 21:04:00,71.1,66.7,29.63,SE,127,2.0,4.0,86,0.00,,,0.25,0,Wunderground v.1.15,2013-05-29 02:04:00,
2013-05-28 21:06:00,71.1,66.7,29.63,SE,132,3.0,4.0,86,0.00,,,0.25,0,Wunderground v.1.15,2013-05-29 02:06:00,
2013-05-28 21:07:00,71.1,66.7,29.64,ESE,122,3.0,4.0,86,0.00,,,0.25,0,Wunderground v.1.15,2013-05-29 02:07:00,
2013-05-28 21:08:00,71.1,66.7,29.63,ESE,122,1.0,4.0,86,0.00,,,0.25,0,Wunderground v.1.15,2013-05-29 02:08:00,
2013-05-28 21:09:00,71.0,66.6,29.63,ESE,115,2.0,4.0,86,0.00,,,0.25,0,Wunderground v.1.15,2013-05-29 02:09:00,
2013-05-28 21:11:00,71.0,66.3,29.63,ESE,109,2.0,2.0,85,0.00,,,0.25,0,Wunderground v.1.15,2013-05-29 02:11:00,
2013-05-28 21:12:00,71.0,66.3,29.64,ESE,111,0.0,2.0,85,0.00,,,0.25,0,Wunderground v.1.15,2013-05-29 02:12:00,
2013-05-28 21:13:00,71.0,66.3,29.64,ESE,109,0.0,2.0,85,0.00,,,0.25,0,Wunderground v.1.15,2013-05-29 02:13:00,
2013-05-28 21:15:00,71.0,66.3,29.64,ESE,109,2.0,4.0,85,0.00,,,0.25,0,Wunderground v.1.15,2013-05-29 02:15:00,
2013-05-28 21:17:00,71.0,66.3,29.64,ESE,114,2.0,4.0,85,0.00,,,0.25,0,Wunderground v.1.15,2013-05-29 02:17:00,
2013-05-28 21:18:00,71.1,66.4,29.64,ESE,113,2.0,4.0,85,0.00,,,0.25,0,Wunderground v.1.15,2013-05-29 02:18:00,
2013-05-28 21:19:00,71.1,66.0,29.64,SE,128,3.0,4.0,84,0.00,,,0.25,0,Wunderground v.1.15,2013-05-29 02:19:00,
2013-05-28 21:21:00,71.2,66.1,29.64,ESE,113,4.0,5.0,84,0.00,,,0.25,0,Wunderground v.1.15,2013-05-29 02:21:00,
2013-05-28 21:22:00,71.3,66.2,29.64,ESE,121,3.0,5.0,84,0.00,,,0.25,0,Wunderground v.1.15,2013-05-29 02:22:00,
2013-05-28 21:25:00,71.3,65.9,29.64,ESE,110,4.0,5.0,83,0.00,,,0.25,0,Wunderground v.1.15,2013-05-29 02:25:00,
2013-05-28 21:27:00,71.4,66.0,29.65,ESE,114,4.0,5.0,83,0.00,,,0.25,0,Wunderground v.1.15,2013-05-29 02:27:00,
2013-05-28 21:28:00,71.4,66.0,29.65,ESE,114,2.0,5.0,83,0.00,,,0.25,0,Wunderground v.1.15,2013-05-29 02:28:00,
2013-05-28 21:29:00,71.4,66.0,29.65,East,99,3.0,5.0,83,0.00,,,0.25,0,Wunderground v.1.15,2013-05-29 02:29:00,
2013-05-28 21:30:00,71.3,65.9,29.64,ESE,103,3.0,3.0,83,0.00,,,0.25,0,Wunderground v.1.15,2013-05-29 02:30:00,
2013-05-28 21:31:00,71.2,65.4,29.64,ESE,103,1.0,3.0,82,0.00,,,0.25,0,Wunderground v.1.15,2013-05-29 02:31:00,
2013-05-28 21:33:00,71.2,65.8,29.64,ESE,103,1.0,3.0,83,0.00,,,0.25,0,Wunderground v.1.15,2013-05-29 02:33:00,
2013-05-28 21:34:00,71.1,65.7,29.64,East,92,0.0,3.0,83,0.00,,,0.25,0,Wunderground v.1.15,2013-05-29 02:34:00,
2013-05-28 21:35:00,71.0,65.6,29.64,East,90,0.0,5.0,83,0.00,,,0.25,0,Wunderground v.1.15,2013-05-29 02:35:00,
2013-05-28 21:38:00,70.8,65.7,29.64,East,94,3.0,5.0,84,0.00,,,0.25,0,Wunderground v.1.15,2013-05-29 02:38:00,
2013-05-28 21:39:00,70.7,65.6,29.65,ESE,105,5.0,5.0,84,0.00,,,0.25,0,Wunderground v.1.15,2013-05-29 02:39:00,
2013-05-28 21:40:00,70.7,65.6,29.65,ESE,119,4.0,5.0,84,0.00,,,0.25,0,Wunderground v.1.15,2013-05-29 02:40:00,
2013-05-28 21:41:00,70.7,65.6,29.65,ESE,112,3.0,5.0,84,0.00,,,0.25,0,Wunderground v.1.15,2013-05-29 02:41:00,
2013-05-28 21:43:00,70.8,65.7,29.66,ESE,123,4.0,5.0,84,0.00,,,0.25,0,Wunderground v.1.15,2013-05-29 02:43:00,
2013-05-28 21:44:00,70.8,65.7,29.66,SE,129,3.0,5.0,84,0.00,,,0.25,0,Wunderground v.1.15,2013-05-29 02:44:00,
2013-05-28 21:46:00,70.9,65.8,29.66,ESE,112,2.0,5.0,84,0.00,,,0.25,0,Wunderground v.1.15,2013-05-29 02:46:00,
2013-05-28 21:47:00,70.9,65.8,29.66,ESE,113,7.0,7.0,84,0.00,,,0.25,0,Wunderground v.1.15,2013-05-29 02:47:00,
2013-05-28 21:50:00,70.9,65.5,29.66,ESE,102,9.0,9.0,83,0.00,,,0.25,0,Wunderground v.1.15,2013-05-29 02:50:00,
2013-05-28 21:52:00,71.0,65.6,29.66,ESE,103,7.0,9.0,83,0.00,,,0.25,0,Wunderground v.1.15,2013-05-29 02:52:00,
2013-05-28 21:56:00,70.9,65.8,29.66,ESE,105,4.0,9.0,84,0.00,,,0.25,0,Wunderground v.1.15,2013-05-29 02:56:00,
2013-05-28 21:57:00,70.9,65.8,29.66,ESE,115,9.0,9.0,84,0.00,,,0.25,0,Wunderground v.1.15,2013-05-29 02:57:00,
2013-05-28 21:58:00,70.9,65.8,29.66,SE,127,6.0,9.0,84,0.00,,,0.25,0,Wunderground v.1.15,2013-05-29 02:58:00,
2013-05-28 22:02:00,70.9,66.2,29.66,ESE,117,7.0,9.0,85,0.00,,,0.25,0,Wunderground v.1.15,2013-05-29 03:02:00,
2013-05-28 22:03:00,70.9,66.2,29.66,ESE,109,7.0,9.0,85,0.00,,,0.25,0,Wunderground v.1.15,2013-05-29 03:03:00,
2013-05-28 22:06:00,70.9,66.5,29.66,SE,125,7.0,9.0,86,0.00,,,0.25,0,Wunderground v.1.15,2013-05-29 03:06:00,
2013-05-28 22:08:00,70.8,66.4,29.66,ESE,120,7.0,9.0,86,0.00,,,0.25,0,Wunderground v.1.15,2013-05-29 03:08:00,
2013-05-28 22:09:00,70.8,66.4,29.66,ESE,113,4.0,9.0,86,0.00,,,0.25,0,Wunderground v.1.15,2013-05-29 03:09:00,
2013-05-28 22:11:00,70.8,66.4,29.66,SE,130,5.0,7.0,86,0.00,,,0.25,0,Wunderground v.1.15,2013-05-29 03:11:00,
2013-05-28 22:13:00,70.7,66.6,29.66,ESE,123,4.0,8.0,87,0.00,,,0.25,0,Wunderground v.1.15,2013-05-29 03:13:00,
2013-05-28 22:14:00,70.7,66.6,29.66,SE,130,7.0,8.0,87,0.00,,,0.25,0,Wunderground v.1.15,2013-05-29 03:14:00,
2013-05-28 22:15:00,70.7,66.6,29.66,SE,136,7.0,8.0,87,0.00,,,0.25,0,Wunderground v.1.15,2013-05-29 03:15:00,
2013-05-28 22:17:00,70.7,66.6,29.66,ESE,113,9.0,10.0,87,0.00,,,0.25,0,Wunderground v.1.15,2013-05-29 03:17:00,
2013-05-28 22:19:00,70.6,66.5,29.66,ESE,119,7.0,10.0,87,0.00,,,0.25,0,Wunderground v.1.15,2013-05-29 03:19:00,
2013-05-28 22:20:00,70.6,66.5,29.66,SE,130,5.0,8.0,87,0.00,,,0.25,0,Wunderground v.1.15,2013-05-29 03:20:00,
2013-05-28 22:22:00,70.5,66.8,29.66,SE,136,3.0,8.0,88,0.00,,,0.25,0,Wunderground v.1.15,2013-05-29 03:22:00,
2013-05-28 22:25:00,70.3,66.6,29.66,SE,128,7.0,8.0,88,0.00,,,0.25,0,Wunderground v.1.15,2013-05-29 03:25:00,
2013-05-28 22:26:00,70.3,66.6,29.66,ESE,116,8.0,10.0,88,0.00,,,0.25,0,Wunderground v.1.15,2013-05-29 03:26:00,
2013-05-28 22:27:00,70.3,66.6,29.66,SE,144,7.0,10.0,88,0.00,,,0.25,0,Wunderground v.1.15,2013-05-29 03:27:00,
2013-05-28 22:28:00,70.2,66.5,29.66,SE,135,4.0,10.0,88,0.00,,,0.25,0,Wunderground v.1.15,2013-05-29 03:28:00,
2013-05-28 22:30:00,70.2,66.5,29.67,SE,130,7.0,7.0,88,0.00,,,0.25,0,Wunderground v.1.15,2013-05-29 03:30:00,
2013-05-28 22:32:00,70.1,66.7,29.67,SE,144,6.0,7.0,89,0.00,,,0.25,0,Wunderground v.1.15,2013-05-29 03:32:00,
2013-05-28 22:33:00,70.1,66.7,29.67,SE,130,6.0,7.0,89,0.00,,,0.25,0,Wunderground v.1.15,2013-05-29 03:33:00,
2013-05-28 22:34:00,70.1,66.7,29.67,SE,130,8.0,8.0,89,0.00,,,0.25,0,Wunderground v.1.15,2013-05-29 03:34:00,
2013-05-28 22:37:00,70.0,66.6,29.67,ESE,112,7.0,8.0,89,0.00,,,0.25,0,Wunderground v.1.15,2013-05-29 03:37:00,
2013-05-28 22:38:00,70.1,66.7,29.67,ESE,115,7.0,8.0,89,0.00,,,0.25,0,Wunderground v.1.15,2013-05-29 03:38:00,
2013-05-28 22:39:00,70.0,66.6,29.67,ESE,103,4.0,8.0,89,0.00,,,0.25,0,Wunderground v.1.15,2013-05-29 03:39:00,
2013-05-28 22:40:00,70.0,66.6,29.67,ESE,108,3.0,6.0,89,0.00,,,0.25,0,Wunderground v.1.15,2013-05-29 03:40:00,
2013-05-28 22:42:00,69.8,66.4,29.66,ESE,108,3.0,6.0,89,0.00,,,0.25,0,Wunderground v.1.15,2013-05-29 03:42:00,
2013-05-28 22:44:00,69.8,66.4,29.66,ESE,118,9.0,9.0,89,0.00,,,0.25,0,Wunderground v.1.15,2013-05-29 03:44:00,
2013-05-28 22:45:00,69.8,66.4,29.66,ESE,112,8.0,9.0,89,0.00,,,0.25,0,Wunderground v.1.15,2013-05-29 03:45:00,
2013-05-28 22:48:00,69.8,66.4,29.66,SE,144,6.0,9.0,89,0.00,,,0.25,0,Wunderground v.1.15,2013-05-29 03:48:00,
2013-05-28 22:50:00,69.8,66.4,29.66,SE,130,6.0,6.0,89,0.00,,,0.25,0,Wunderground v.1.15,2013-05-29 03:50:00,
2013-05-28 22:52:00,69.8,66.4,29.65,SE,126,5.0,6.0,89,0.00,,,0.25,0,Wunderground v.1.15,2013-05-29 03:52:00,
2013-05-28 22:54:00,69.7,66.3,29.65,ESE,109,8.0,8.0,89,0.00,,,0.25,0,Wunderground v.1.15,2013-05-29 03:54:00,
2013-05-28 22:55:00,69.7,66.3,29.65,ESE,119,8.0,8.0,89,0.00,,,0.25,0,Wunderground v.1.15,2013-05-29 03:55:00,
2013-05-28 22:56:00,69.6,66.2,29.65,ESE,122,9.0,10.0,89,0.00,,,0.25,0,Wunderground v.1.15,2013-05-29 03:56:00,
2013-05-28 22:57:00,69.7,66.3,29.65,ESE,123,7.0,10.0,89,0.00,,,0.25,0,Wunderground v.1.15,2013-05-29 03:57:00,
2013-05-28 23:00:00,69.5,66.1,29.65,SE,124,6.0,6.0,89,0.00,,,0.25,0,Wunderground v.1.15,2013-05-29 04:00:00,
2013-05-28 23:01:00,69.5,66.4,29.65,ESE,122,7.0,10.0,90,0.00,,,0.25,0,Wunderground v.1.15,2013-05-29 04:01:00,
2013-05-28 23:02:00,69.5,66.4,29.65,SE,138,8.0,10.0,90,0.00,,,0.25,0,Wunderground v.1.15,2013-05-29 04:02:00,
2013-05-28 23:05:00,69.4,66.3,29.65,SE,130,11.0,11.0,90,0.00,,,0.25,0,Wunderground v.1.15,2013-05-29 04:05:00,
2013-05-28 23:06:00,69.4,66.3,29.65,ESE,123,8.0,11.0,90,0.00,,,0.25,0,Wunderground v.1.15,2013-05-29 04:06:00,
2013-05-28 23:07:00,69.4,66.3,29.65,SE,145,9.0,11.0,90,0.00,,,0.25,0,Wunderground v.1.15,2013-05-29 04:07:00,
2013-05-28 23:08:00,69.4,66.3,29.65,SE,136,6.0,11.0,90,0.00,,,0.25,0,Wunderground v.1.15,2013-05-29 04:08:00,
2013-05-28 23:12:00,69.3,66.2,29.65,SE,139,10.0,11.0,90,0.00,,,0.25,0,Wunderground v.1.15,2013-05-29 04:12:00,
2013-05-28 23:13:00,69.3,66.6,29.65,SE,137,9.0,11.0,91,0.00,,,0.25,0,Wunderground v.1.15,2013-05-29 04:13:00,
2013-05-28 23:15:00,69.3,66.2,29.65,SE,146,9.0,11.0,90,0.00,,,0.25,0,Wunderground v.1.15,2013-05-29 04:15:00,
2013-05-28 23:17:00,69.3,66.2,29.65,ESE,123,8.0,11.0,90,0.00,,,0.25,0,Wunderground v.1.15,2013-05-29 04:17:00,
2013-05-28 23:18:00,69.3,66.2,29.65,ESE,119,5.0,11.0,90,0.00,,,0.25,0,Wunderground v.1.15,2013-05-29 04:18:00,
2013-05-28 23:20:00,69.3,66.2,29.65,ESE,113,9.0,9.0,90,0.00,,,0.25,0,Wunderground v.1.15,2013-05-29 04:20:00,
2013-05-28 23:21:00,69.4,66.3,29.65,SE,140,8.0,9.0,90,0.00,,,0.25,0,Wunderground v.1.15,2013-05-29 04:21:00,
2013-05-28 23:23:00,69.4,66.3,29.65,ESE,114,8.0,9.0,90,0.00,,,0.25,0,Wunderground v.1.15,2013-05-29 04:23:00,
2013-05-28 23:25:00,69.5,66.4,29.65,SE,138,6.0,10.0,90,0.00,,,0.25,0,Wunderground v.1.15,2013-05-29 04:25:00,
2013-05-28 23:26:00,69.5,66.1,29.65,ESE,117,7.0,10.0,89,0.00,,,0.25,0,Wunderground v.1.15,2013-05-29 04:26:00,
2013-05-28 23:28:00,69.6,66.2,29.65,SE,140,6.0,10.0,89,0.00,,,0.25,0,Wunderground v.1.15,2013-05-29 04:28:00,
2013-05-28 23:29:00,69.7,66.3,29.65,SE,137,6.0,10.0,89,0.00,,,0.25,0,Wunderground v.1.15,2013-05-29 04:29:00,
2013-05-28 23:30:00,69.7,66.3,29.65,SE,144,8.0,8.0,89,0.00,,,0.25,0,Wunderground v.1.15,2013-05-29 04:30:00,
2013-05-28 23:32:00,69.7,66.3,29.65,SE,136,4.0,8.0,89,0.00,,,0.25,0,Wunderground v.1.15,2013-05-29 04:32:00,
2013-05-28 23:34:00,69.7,66.3,29.64,SE,136,5.0,8.0,89,0.00,,,0.25,0,Wunderground v.1.15,2013-05-29 04:34:00,
2013-05-28 23:36:00,69.7,66.3,29.64,SE,145,6.0,8.0,89,0.00,,,0.25,0,Wunderground v.1.15,2013-05-29 04:36:00,
2013-05-28 23:38:00,69.6,66.2,29.64,SE,129,3.0,8.0,89,0.00,,,0.25,0,Wunderground v.1.15,2013-05-29 04:38:00,
2013-05-28 23:41:00,69.6,65.9,29.65,SE,125,4.0,8.0,88,0.00,,,0.25,0,Wunderground v.1.15,2013-05-29 04:41:00,
2013-05-28 23:42:00,69.6,65.9,29.65,SE,126,4.0,8.0,88,0.00,,,0.25,0,Wunderground v.1.15,2013-05-29 04:42:00,
2013-05-28 23:43:00,69.6,65.9,29.64,SE,129,5.0,8.0,88,0.00,,,0.25,0,Wunderground v.1.15,2013-05-29 04:43:00,
2013-05-28 23:44:00,69.6,66.2,29.65,SE,125,5.0,8.0,89,0.00,,,0.25,0,Wunderground v.1.15,2013-05-29 04:44:00,
2013-05-28 23:47:00,69.5,66.1,29.64,SE,146,4.0,8.0,89,0.00,,,0.25,0,Wunderground v.1.15,2013-05-29 04:47:00,
2013-05-28 23:48:00,69.5,66.1,29.64,SE,143,3.0,8.0,89,0.00,,,0.25,0,Wunderground v.1.15,2013-05-29 04:48:00,
2013-05-28 23:49:00,69.4,66.0,29.64,SE,138,3.0,8.0,89,0.00,,,0.25,0,Wunderground v.1.15,2013-05-29 04:49:00,
2013-05-28 23:50:00,69.4,66.0,29.64,SE,141,4.0,8.0,89,0.00,,,0.25,0,Wunderground v.1.15,2013-05-29 04:50:00,
2013-05-28 23:53:00,69.3,65.9,29.64,SE,143,3.0,6.0,89,0.00,,,0.25,0,Wunderground v.1.15,2013-05-29 04:53:00,
2013-05-28 23:54:00,69.2,65.8,29.64,SE,140,4.0,6.0,89,0.00,,,0.25,0,Wunderground v.1.15,2013-05-29 04:54:00,
2013-05-28 23:55:00,69.2,65.8,29.64,SE,142,2.0,6.0,89,0.00,,,0.25,0,Wunderground v.1.15,2013-05-29 04:55:00,
2013-05-28 23:59:00,68.9,65.8,29.64,SE,142,1.0,6.0,90,0.00,,,0.00,0,Wunderground v.1.15,2013-05-29 04:59:00,